<?xml version="1.0" encoding="UTF-8"?>
<gpx version="1.0" creator="http://thydzik.com" xmlns:xsi="http://www.w3.org/2001/XMLSchema-instance" xmlns="http://www.topografix.com/GPX/1/0" xsi:schemaLocation="http://www.topografix.com/GPX/1/0 http://www.topografix.com/GPX/1/0/gpx.xsd">
  <url></url>
  <time>2019-09-24T09:58:31Z</time>
  <trk>
    <name>senda renabar</name>
    <trkseg>
      <trkpt lat="42.6709314079554" lon="-2.44344931759096">
        <time>2019-09-24T09:58:31Z</time>
      </trkpt>
      <trkpt lat="42.6709310685695" lon="-2.44345559265786">
        <time>2019-09-24T09:58:31Z</time>
      </trkpt>
      <trkpt lat="42.6709327820018" lon="-2.44347449237238">
        <time>2019-09-24T09:58:31Z</time>
      </trkpt>
      <trkpt lat="42.6709354012912" lon="-2.44350195244317">
        <time>2019-09-24T09:58:31Z</time>
      </trkpt>
      <trkpt lat="42.670938246434" lon="-2.44353343558668">
        <time>2019-09-24T09:58:31Z</time>
      </trkpt>
      <trkpt lat="42.6709413735176" lon="-2.44356546687614">
        <time>2019-09-24T09:58:31Z</time>
      </trkpt>
      <trkpt lat="42.6709448194102" lon="-2.44359631217913">
        <time>2019-09-24T09:58:31Z</time>
      </trkpt>
      <trkpt lat="42.6709485360267" lon="-2.44362539569475">
        <time>2019-09-24T09:58:31Z</time>
      </trkpt>
      <trkpt lat="42.6709525868231" lon="-2.44365283108035">
        <time>2019-09-24T09:58:31Z</time>
      </trkpt>
      <trkpt lat="42.6709577244228" lon="-2.44367971805503">
        <time>2019-09-24T09:58:31Z</time>
      </trkpt>
      <trkpt lat="42.6709649491916" lon="-2.44370817361462">
        <time>2019-09-24T09:58:31Z</time>
      </trkpt>
      <trkpt lat="42.670973822493" lon="-2.44373828520956">
        <time>2019-09-24T09:58:31Z</time>
      </trkpt>
      <trkpt lat="42.6709834802223" lon="-2.44376879386288">
        <time>2019-09-24T09:58:31Z</time>
      </trkpt>
      <trkpt lat="42.6709935965166" lon="-2.44379917569038">
        <time>2019-09-24T09:58:31Z</time>
      </trkpt>
      <trkpt lat="42.671004208818" lon="-2.44382962811849">
        <time>2019-09-24T09:58:31Z</time>
      </trkpt>
      <trkpt lat="42.6710151819577" lon="-2.44386029555803">
        <time>2019-09-24T09:58:31Z</time>
      </trkpt>
      <trkpt lat="42.6710263810982" lon="-2.44389113147641">
        <time>2019-09-24T09:58:31Z</time>
      </trkpt>
      <trkpt lat="42.6710379046779" lon="-2.44392194064667">
        <time>2019-09-24T09:58:31Z</time>
      </trkpt>
      <trkpt lat="42.6710495519725" lon="-2.44395232081464">
        <time>2019-09-24T09:58:31Z</time>
      </trkpt>
      <trkpt lat="42.6710608631271" lon="-2.4439818754444">
        <time>2019-09-24T09:58:31Z</time>
      </trkpt>
      <trkpt lat="42.6710714642949" lon="-2.44401004356921">
        <time>2019-09-24T09:58:31Z</time>
      </trkpt>
      <trkpt lat="42.6710813270572" lon="-2.44403641287274">
        <time>2019-09-24T09:58:31Z</time>
      </trkpt>
      <trkpt lat="42.6710906397591" lon="-2.44406090836744">
        <time>2019-09-24T09:58:31Z</time>
      </trkpt>
      <trkpt lat="42.6711001188211" lon="-2.44408416979764">
        <time>2019-09-24T09:58:31Z</time>
      </trkpt>
      <trkpt lat="42.6711106658866" lon="-2.44410689663259">
        <time>2019-09-24T09:58:31Z</time>
      </trkpt>
      <trkpt lat="42.6711174553778" lon="-2.44416804965552">
        <time>2019-09-24T09:58:31Z</time>
      </trkpt>
      <trkpt lat="42.6711287361598" lon="-2.44419135473044">
        <time>2019-09-24T09:58:31Z</time>
      </trkpt>
      <trkpt lat="42.6711407027586" lon="-2.44421521629758">
        <time>2019-09-24T09:58:31Z</time>
      </trkpt>
      <trkpt lat="42.6711525523181" lon="-2.44424088603398">
        <time>2019-09-24T09:58:31Z</time>
      </trkpt>
      <trkpt lat="42.6711791398896" lon="-2.44429922540778">
        <time>2019-09-24T09:58:31Z</time>
      </trkpt>
      <trkpt lat="42.6711937538367" lon="-2.44433017939299">
        <time>2019-09-24T09:58:31Z</time>
      </trkpt>
      <trkpt lat="42.6712092691864" lon="-2.44436152599995">
        <time>2019-09-24T09:58:31Z</time>
      </trkpt>
      <trkpt lat="42.671225511562" lon="-2.44439232912672">
        <time>2019-09-24T09:58:31Z</time>
      </trkpt>
      <trkpt lat="42.6712425129391" lon="-2.4444219184909">
        <time>2019-09-24T09:58:31Z</time>
      </trkpt>
      <trkpt lat="42.6712605268209" lon="-2.44445042481209">
        <time>2019-09-24T09:58:31Z</time>
      </trkpt>
      <trkpt lat="42.671279492259" lon="-2.44447825097362">
        <time>2019-09-24T09:58:31Z</time>
      </trkpt>
      <trkpt lat="42.6712987895802" lon="-2.44450576903221">
        <time>2019-09-24T09:58:31Z</time>
      </trkpt>
      <trkpt lat="42.671317556481" lon="-2.44453364643524">
        <time>2019-09-24T09:58:31Z</time>
      </trkpt>
      <trkpt lat="42.6713349974781" lon="-2.44456283985611">
        <time>2019-09-24T09:58:31Z</time>
      </trkpt>
      <trkpt lat="42.6713501884014" lon="-2.44459397126105">
        <time>2019-09-24T09:58:31Z</time>
      </trkpt>
      <trkpt lat="42.6713620912693" lon="-2.44462702261042">
        <time>2019-09-24T09:58:31Z</time>
      </trkpt>
      <trkpt lat="42.6713698039699" lon="-2.44466119724819">
        <time>2019-09-24T09:58:31Z</time>
      </trkpt>
      <trkpt lat="42.6713731829935" lon="-2.44469517860858">
        <time>2019-09-24T09:58:31Z</time>
      </trkpt>
      <trkpt lat="42.6713730355125" lon="-2.44472782578617">
        <time>2019-09-24T09:58:31Z</time>
      </trkpt>
      <trkpt lat="42.6713706646811" lon="-2.4447590999008">
        <time>2019-09-24T09:58:31Z</time>
      </trkpt>
      <trkpt lat="42.6713675231491" lon="-2.44479073547687">
        <time>2019-09-24T09:58:31Z</time>
      </trkpt>
      <trkpt lat="42.6713645047372" lon="-2.44482389578037">
        <time>2019-09-24T09:58:31Z</time>
      </trkpt>
      <trkpt lat="42.6713618367675" lon="-2.44485876120578">
        <time>2019-09-24T09:58:31Z</time>
      </trkpt>
      <trkpt lat="42.6713593095958" lon="-2.44489490570552">
        <time>2019-09-24T09:58:31Z</time>
      </trkpt>
      <trkpt lat="42.6713566056765" lon="-2.44493144388651">
        <time>2019-09-24T09:58:31Z</time>
      </trkpt>
      <trkpt lat="42.6713539019575" lon="-2.44496828552292">
        <time>2019-09-24T09:58:31Z</time>
      </trkpt>
      <trkpt lat="42.6713520409086" lon="-2.44500612210224">
        <time>2019-09-24T09:58:31Z</time>
      </trkpt>
      <trkpt lat="42.6713518047666" lon="-2.44504463809322">
        <time>2019-09-24T09:58:31Z</time>
      </trkpt>
      <trkpt lat="42.6713535563333" lon="-2.4450828943185">
        <time>2019-09-24T09:58:31Z</time>
      </trkpt>
      <trkpt lat="42.6713574050495" lon="-2.44512062896887">
        <time>2019-09-24T09:58:31Z</time>
      </trkpt>
      <trkpt lat="42.6713632509332" lon="-2.44515823845859">
        <time>2019-09-24T09:58:31Z</time>
      </trkpt>
      <trkpt lat="42.6713676788645" lon="-2.44519478481424">
        <time>2019-09-24T09:58:31Z</time>
      </trkpt>
      <trkpt lat="42.671377683753" lon="-2.4452318561148">
        <time>2019-09-24T09:58:31Z</time>
      </trkpt>
      <trkpt lat="42.6713849096688" lon="-2.44526790366267">
        <time>2019-09-24T09:58:31Z</time>
      </trkpt>
      <trkpt lat="42.671393163961" lon="-2.44530458650339">
        <time>2019-09-24T09:58:31Z</time>
      </trkpt>
      <trkpt lat="42.6714013045278" lon="-2.44534168804936">
        <time>2019-09-24T09:58:31Z</time>
      </trkpt>
      <trkpt lat="42.6714084810933" lon="-2.44537872316175">
        <time>2019-09-24T09:58:31Z</time>
      </trkpt>
      <trkpt lat="42.6714140610492" lon="-2.44541521158403">
        <time>2019-09-24T09:58:31Z</time>
      </trkpt>
      <trkpt lat="42.6714178902227" lon="-2.44545075063764">
        <time>2019-09-24T09:58:31Z</time>
      </trkpt>
      <trkpt lat="42.6714201642188" lon="-2.44548520560378">
        <time>2019-09-24T09:58:31Z</time>
      </trkpt>
      <trkpt lat="42.6714212161685" lon="-2.44551852407892">
        <time>2019-09-24T09:58:31Z</time>
      </trkpt>
      <trkpt lat="42.671421246573" lon="-2.44555080315969">
        <time>2019-09-24T09:58:31Z</time>
      </trkpt>
      <trkpt lat="42.6714206895164" lon="-2.44558257430538">
        <time>2019-09-24T09:58:31Z</time>
      </trkpt>
      <trkpt lat="42.6714198059203" lon="-2.44561420173623">
        <time>2019-09-24T09:58:31Z</time>
      </trkpt>
      <trkpt lat="42.6714187716526" lon="-2.44564589187902">
        <time>2019-09-24T09:58:31Z</time>
      </trkpt>
      <trkpt lat="42.6714179422484" lon="-2.44567754269424">
        <time>2019-09-24T09:58:31Z</time>
      </trkpt>
      <trkpt lat="42.6714152002056" lon="-2.44570833251079">
        <time>2019-09-24T09:58:31Z</time>
      </trkpt>
      <trkpt lat="42.6714172003836" lon="-2.44574003319901">
        <time>2019-09-24T09:58:31Z</time>
      </trkpt>
      <trkpt lat="42.6714182146768" lon="-2.44577286442862">
        <time>2019-09-24T09:58:31Z</time>
      </trkpt>
      <trkpt lat="42.6714208075164" lon="-2.44580797464109">
        <time>2019-09-24T09:58:31Z</time>
      </trkpt>
      <trkpt lat="42.6714116072786" lon="-2.44587219907564">
        <time>2019-09-24T09:58:31Z</time>
      </trkpt>
      <trkpt lat="42.6714159390788" lon="-2.44591128656872">
        <time>2019-09-24T09:58:31Z</time>
      </trkpt>
      <trkpt lat="42.6714219205309" lon="-2.44595252967315">
        <time>2019-09-24T09:58:31Z</time>
      </trkpt>
      <trkpt lat="42.6714293592292" lon="-2.44599360300085">
        <time>2019-09-24T09:58:31Z</time>
      </trkpt>
      <trkpt lat="42.6714379105225" lon="-2.44603373732417">
        <time>2019-09-24T09:58:31Z</time>
      </trkpt>
      <trkpt lat="42.671447600731" lon="-2.44607291195317">
        <time>2019-09-24T09:58:31Z</time>
      </trkpt>
      <trkpt lat="42.6714578527861" lon="-2.44611094448062">
        <time>2019-09-24T09:58:31Z</time>
      </trkpt>
      <trkpt lat="42.6714674878821" lon="-2.44614809257274">
        <time>2019-09-24T09:58:31Z</time>
      </trkpt>
      <trkpt lat="42.6714779540466" lon="-2.44618565950851">
        <time>2019-09-24T09:58:31Z</time>
      </trkpt>
      <trkpt lat="42.6714964060308" lon="-2.44626195255835">
        <time>2019-09-24T09:58:31Z</time>
      </trkpt>
      <trkpt lat="42.6715058856343" lon="-2.44630051709194">
        <time>2019-09-24T09:58:31Z</time>
      </trkpt>
      <trkpt lat="42.6715150490202" lon="-2.44633873154198">
        <time>2019-09-24T09:58:31Z</time>
      </trkpt>
      <trkpt lat="42.6715246159941" lon="-2.44637663725598">
        <time>2019-09-24T09:58:31Z</time>
      </trkpt>
      <trkpt lat="42.6715337208375" lon="-2.44641393674992">
        <time>2019-09-24T09:58:31Z</time>
      </trkpt>
      <trkpt lat="42.6715426336439" lon="-2.44645081004409">
        <time>2019-09-24T09:58:31Z</time>
      </trkpt>
      <trkpt lat="42.6715507269549" lon="-2.44648758150947">
        <time>2019-09-24T09:58:31Z</time>
      </trkpt>
      <trkpt lat="42.671558298885" lon="-2.44652450252097">
        <time>2019-09-24T09:58:31Z</time>
      </trkpt>
      <trkpt lat="42.6715642746885" lon="-2.44656097568857">
        <time>2019-09-24T09:58:31Z</time>
      </trkpt>
      <trkpt lat="42.6715707793463" lon="-2.44659702819143">
        <time>2019-09-24T09:58:31Z</time>
      </trkpt>
      <trkpt lat="42.6715777585574" lon="-2.44663235705051">
        <time>2019-09-24T09:58:31Z</time>
      </trkpt>
      <trkpt lat="42.6715848490377" lon="-2.44666650177187">
        <time>2019-09-24T09:58:31Z</time>
      </trkpt>
      <trkpt lat="42.6715915196512" lon="-2.44669967335124">
        <time>2019-09-24T09:58:31Z</time>
      </trkpt>
      <trkpt lat="42.6715973457698" lon="-2.44673303654927">
        <time>2019-09-24T09:58:31Z</time>
      </trkpt>
      <trkpt lat="42.6716019679626" lon="-2.44676718954111">
        <time>2019-09-24T09:58:31Z</time>
      </trkpt>
      <trkpt lat="42.6716050519527" lon="-2.44680168691587">
        <time>2019-09-24T09:58:31Z</time>
      </trkpt>
      <trkpt lat="42.6716092986725" lon="-2.44687168581146">
        <time>2019-09-24T09:58:31Z</time>
      </trkpt>
      <trkpt lat="42.6716125936738" lon="-2.44690690076757">
        <time>2019-09-24T09:58:31Z</time>
      </trkpt>
      <trkpt lat="42.6716173193853" lon="-2.44694192062697">
        <time>2019-09-24T09:58:31Z</time>
      </trkpt>
      <trkpt lat="42.6716232959711" lon="-2.44697675891994">
        <time>2019-09-24T09:58:31Z</time>
      </trkpt>
      <trkpt lat="42.6716296316417" lon="-2.44701118998958">
        <time>2019-09-24T09:58:31Z</time>
      </trkpt>
      <trkpt lat="42.6716366556053" lon="-2.44704486995041">
        <time>2019-09-24T09:58:31Z</time>
      </trkpt>
      <trkpt lat="42.6716439007088" lon="-2.447077451746">
        <time>2019-09-24T09:58:31Z</time>
      </trkpt>
      <trkpt lat="42.6716515977583" lon="-2.4471087952388">
        <time>2019-09-24T09:58:31Z</time>
      </trkpt>
      <trkpt lat="42.6716593348711" lon="-2.44713879667382">
        <time>2019-09-24T09:58:31Z</time>
      </trkpt>
      <trkpt lat="42.6716681053714" lon="-2.44717047334352">
        <time>2019-09-24T09:58:31Z</time>
      </trkpt>
      <trkpt lat="42.6716767007558" lon="-2.44720288295107">
        <time>2019-09-24T09:58:31Z</time>
      </trkpt>
      <trkpt lat="42.6716850277099" lon="-2.44723598029248">
        <time>2019-09-24T09:58:31Z</time>
      </trkpt>
      <trkpt lat="42.6716926916326" lon="-2.44726959326467">
        <time>2019-09-24T09:58:31Z</time>
      </trkpt>
      <trkpt lat="42.6716991604725" lon="-2.4473037436285">
        <time>2019-09-24T09:58:31Z</time>
      </trkpt>
      <trkpt lat="42.6717040109172" lon="-2.44733856640483">
        <time>2019-09-24T09:58:31Z</time>
      </trkpt>
      <trkpt lat="42.6717071881977" lon="-2.44737366143812">
        <time>2019-09-24T09:58:31Z</time>
      </trkpt>
      <trkpt lat="42.671708914815" lon="-2.44740873181701">
        <time>2019-09-24T09:58:31Z</time>
      </trkpt>
      <trkpt lat="42.6717092096638" lon="-2.44744352164524">
        <time>2019-09-24T09:58:31Z</time>
      </trkpt>
      <trkpt lat="42.6717081232125" lon="-2.44747780031964">
        <time>2019-09-24T09:58:31Z</time>
      </trkpt>
      <trkpt lat="42.6717060800398" lon="-2.44751169535107">
        <time>2019-09-24T09:58:31Z</time>
      </trkpt>
      <trkpt lat="42.671703921277" lon="-2.44754588463683">
        <time>2019-09-24T09:58:31Z</time>
      </trkpt>
      <trkpt lat="42.6717026557808" lon="-2.44758034731011">
        <time>2019-09-24T09:58:31Z</time>
      </trkpt>
      <trkpt lat="42.6717032621346" lon="-2.44761452404396">
        <time>2019-09-24T09:58:31Z</time>
      </trkpt>
      <trkpt lat="42.6717065462398" lon="-2.44764778714378">
        <time>2019-09-24T09:58:31Z</time>
      </trkpt>
      <trkpt lat="42.6717132913956" lon="-2.44767951764064">
        <time>2019-09-24T09:58:31Z</time>
      </trkpt>
      <trkpt lat="42.6717233956816" lon="-2.44770945048595">
        <time>2019-09-24T09:58:31Z</time>
      </trkpt>
      <trkpt lat="42.6717358983659" lon="-2.44773793345177">
        <time>2019-09-24T09:58:31Z</time>
      </trkpt>
      <trkpt lat="42.6717497285293" lon="-2.44776568352992">
        <time>2019-09-24T09:58:31Z</time>
      </trkpt>
      <trkpt lat="42.6717640470851" lon="-2.44779349067207">
        <time>2019-09-24T09:58:31Z</time>
      </trkpt>
      <trkpt lat="42.6717783417869" lon="-2.44782209249589">
        <time>2019-09-24T09:58:31Z</time>
      </trkpt>
      <trkpt lat="42.6717916403658" lon="-2.44785153170334">
        <time>2019-09-24T09:58:31Z</time>
      </trkpt>
      <trkpt lat="42.6718024491407" lon="-2.44788016440178">
        <time>2019-09-24T09:58:31Z</time>
      </trkpt>
      <trkpt lat="42.671806798873" lon="-2.44791737167641">
        <time>2019-09-24T09:58:31Z</time>
      </trkpt>
      <trkpt lat="42.6718085094284" lon="-2.44792486127157">
        <time>2019-09-24T09:58:31Z</time>
      </trkpt>
      <trkpt lat="42.6718154266199" lon="-2.44794009253235">
        <time>2019-09-24T09:58:31Z</time>
      </trkpt>
      <trkpt lat="42.671829572406" lon="-2.44796024992138">
        <time>2019-09-24T09:58:31Z</time>
      </trkpt>
      <trkpt lat="42.6718495071755" lon="-2.44798185636454">
        <time>2019-09-24T09:58:31Z</time>
      </trkpt>
      <trkpt lat="42.6718723858368" lon="-2.44800347428189">
        <time>2019-09-24T09:58:31Z</time>
      </trkpt>
      <trkpt lat="42.6718959475556" lon="-2.44802481851069">
        <time>2019-09-24T09:58:31Z</time>
      </trkpt>
      <trkpt lat="42.6719191939414" lon="-2.44804599335549">
        <time>2019-09-24T09:58:31Z</time>
      </trkpt>
      <trkpt lat="42.6719418985629" lon="-2.44806700252378">
        <time>2019-09-24T09:58:31Z</time>
      </trkpt>
      <trkpt lat="42.6719640171521" lon="-2.44808779696577">
        <time>2019-09-24T09:58:31Z</time>
      </trkpt>
      <trkpt lat="42.6719855578747" lon="-2.44810824363009">
        <time>2019-09-24T09:58:31Z</time>
      </trkpt>
      <trkpt lat="42.6720068008192" lon="-2.44812850881852">
        <time>2019-09-24T09:58:31Z</time>
      </trkpt>
      <trkpt lat="42.6720281613452" lon="-2.44814889572999">
        <time>2019-09-24T09:58:31Z</time>
      </trkpt>
      <trkpt lat="42.6720500711183" lon="-2.44816943634858">
        <time>2019-09-24T09:58:31Z</time>
      </trkpt>
      <trkpt lat="42.6720727476571" lon="-2.44819010488318">
        <time>2019-09-24T09:58:31Z</time>
      </trkpt>
      <trkpt lat="42.6720960558531" lon="-2.44821105937616">
        <time>2019-09-24T09:58:31Z</time>
      </trkpt>
      <trkpt lat="42.6721196278087" lon="-2.4482327088375">
        <time>2019-09-24T09:58:31Z</time>
      </trkpt>
      <trkpt lat="42.6721432246806" lon="-2.44825561457295">
        <time>2019-09-24T09:58:31Z</time>
      </trkpt>
      <trkpt lat="42.6721665496114" lon="-2.44828004687148">
        <time>2019-09-24T09:58:31Z</time>
      </trkpt>
      <trkpt lat="42.6721894228377" lon="-2.4483060346018">
        <time>2019-09-24T09:58:31Z</time>
      </trkpt>
      <trkpt lat="42.6722116276792" lon="-2.44833351660133">
        <time>2019-09-24T09:58:31Z</time>
      </trkpt>
      <trkpt lat="42.6722325504884" lon="-2.44836229030398">
        <time>2019-09-24T09:58:31Z</time>
      </trkpt>
      <trkpt lat="42.6722513301647" lon="-2.44839092612733">
        <time>2019-09-24T09:58:31Z</time>
      </trkpt>
      <trkpt lat="42.6722665787314" lon="-2.44841595501847">
        <time>2019-09-24T09:58:31Z</time>
      </trkpt>
      <trkpt lat="42.6722923783993" lon="-2.44844748162862">
        <time>2019-09-24T09:58:31Z</time>
      </trkpt>
      <trkpt lat="42.6722953138233" lon="-2.4484621975956">
        <time>2019-09-24T09:58:31Z</time>
      </trkpt>
      <trkpt lat="42.6722986840249" lon="-2.44848334215473">
        <time>2019-09-24T09:58:31Z</time>
      </trkpt>
      <trkpt lat="42.6723021036276" lon="-2.44850900074719">
        <time>2019-09-24T09:58:31Z</time>
      </trkpt>
      <trkpt lat="42.6723062197359" lon="-2.44853717978777">
        <time>2019-09-24T09:58:31Z</time>
      </trkpt>
      <trkpt lat="42.6723110933627" lon="-2.44856565730649">
        <time>2019-09-24T09:58:31Z</time>
      </trkpt>
      <trkpt lat="42.6723174997876" lon="-2.44859449976137">
        <time>2019-09-24T09:58:31Z</time>
      </trkpt>
      <trkpt lat="42.6723260604529" lon="-2.44862369995763">
        <time>2019-09-24T09:58:31Z</time>
      </trkpt>
      <trkpt lat="42.6723365107444" lon="-2.44865238564353">
        <time>2019-09-24T09:58:31Z</time>
      </trkpt>
      <trkpt lat="42.6723484237364" lon="-2.44868020257334">
        <time>2019-09-24T09:58:31Z</time>
      </trkpt>
      <trkpt lat="42.6723609547111" lon="-2.44870729460167">
        <time>2019-09-24T09:58:31Z</time>
      </trkpt>
      <trkpt lat="42.6723738449912" lon="-2.44873428458409">
        <time>2019-09-24T09:58:31Z</time>
      </trkpt>
      <trkpt lat="42.6723872784433" lon="-2.44876173520568">
        <time>2019-09-24T09:58:31Z</time>
      </trkpt>
      <trkpt lat="42.6724008221567" lon="-2.44878987874379">
        <time>2019-09-24T09:58:31Z</time>
      </trkpt>
      <trkpt lat="42.6724136136559" lon="-2.4488185676762">
        <time>2019-09-24T09:58:31Z</time>
      </trkpt>
      <trkpt lat="42.6724247687616" lon="-2.44884811157391">
        <time>2019-09-24T09:58:31Z</time>
      </trkpt>
      <trkpt lat="42.6724342474728" lon="-2.44887908703213">
        <time>2019-09-24T09:58:31Z</time>
      </trkpt>
      <trkpt lat="42.6724436174547" lon="-2.44890995264408">
        <time>2019-09-24T09:58:31Z</time>
      </trkpt>
      <trkpt lat="42.6724546393496" lon="-2.44893979269035">
        <time>2019-09-24T09:58:31Z</time>
      </trkpt>
      <trkpt lat="42.6724677357918" lon="-2.4489683306617">
        <time>2019-09-24T09:58:31Z</time>
      </trkpt>
      <trkpt lat="42.6724823729109" lon="-2.44899520984395">
        <time>2019-09-24T09:58:31Z</time>
      </trkpt>
      <trkpt lat="42.6724978982972" lon="-2.44901949150455">
        <time>2019-09-24T09:58:31Z</time>
      </trkpt>
      <trkpt lat="42.6725141157301" lon="-2.44904170588364">
        <time>2019-09-24T09:58:31Z</time>
      </trkpt>
      <trkpt lat="42.6725313542912" lon="-2.44906278945529">
        <time>2019-09-24T09:58:31Z</time>
      </trkpt>
      <trkpt lat="42.6725497431947" lon="-2.44908318945839">
        <time>2019-09-24T09:58:31Z</time>
      </trkpt>
      <trkpt lat="42.6725674953088" lon="-2.44910249886711">
        <time>2019-09-24T09:58:31Z</time>
      </trkpt>
      <trkpt lat="42.6725815684942" lon="-2.44911885043426">
        <time>2019-09-24T09:58:31Z</time>
      </trkpt>
      <trkpt lat="42.6725906614749" lon="-2.44912770194419">
        <time>2019-09-24T09:58:31Z</time>
      </trkpt>
      <trkpt lat="42.6725937963858" lon="-2.44912793169871">
        <time>2019-09-24T09:58:31Z</time>
      </trkpt>
      <trkpt lat="42.6726012274037" lon="-2.44913179580459">
        <time>2019-09-24T09:58:31Z</time>
      </trkpt>
      <trkpt lat="42.6726130312342" lon="-2.44914085695052">
        <time>2019-09-24T09:58:31Z</time>
      </trkpt>
      <trkpt lat="42.6726279986854" lon="-2.44915402617759">
        <time>2019-09-24T09:58:31Z</time>
      </trkpt>
      <trkpt lat="42.6726452883099" lon="-2.44916872633881">
        <time>2019-09-24T09:58:31Z</time>
      </trkpt>
      <trkpt lat="42.6726635048394" lon="-2.4491833688834">
        <time>2019-09-24T09:58:31Z</time>
      </trkpt>
      <trkpt lat="42.6726818232076" lon="-2.44919852199834">
        <time>2019-09-24T09:58:31Z</time>
      </trkpt>
      <trkpt lat="42.672700178326" lon="-2.44921582463914">
        <time>2019-09-24T09:58:31Z</time>
      </trkpt>
      <trkpt lat="42.672718940791" lon="-2.44923542867934">
        <time>2019-09-24T09:58:31Z</time>
      </trkpt>
      <trkpt lat="42.6727383367384" lon="-2.44925569885838">
        <time>2019-09-24T09:58:31Z</time>
      </trkpt>
      <trkpt lat="42.6727583387635" lon="-2.44927459809747">
        <time>2019-09-24T09:58:31Z</time>
      </trkpt>
      <trkpt lat="42.6727788528742" lon="-2.44929141629371">
        <time>2019-09-24T09:58:31Z</time>
      </trkpt>
      <trkpt lat="42.6727996680751" lon="-2.44930701285902">
        <time>2019-09-24T09:58:31Z</time>
      </trkpt>
      <trkpt lat="42.6728206631388" lon="-2.44932286357812">
        <time>2019-09-24T09:58:31Z</time>
      </trkpt>
      <trkpt lat="42.6728418669132" lon="-2.44933868859741">
        <time>2019-09-24T09:58:31Z</time>
      </trkpt>
      <trkpt lat="42.672862980755" lon="-2.44935281636588">
        <time>2019-09-24T09:58:31Z</time>
      </trkpt>
      <trkpt lat="42.6728834091445" lon="-2.44936488899938">
        <time>2019-09-24T09:58:31Z</time>
      </trkpt>
      <trkpt lat="42.6729032248303" lon="-2.44937695511421">
        <time>2019-09-24T09:58:31Z</time>
      </trkpt>
      <trkpt lat="42.6729227385163" lon="-2.44938979280124">
        <time>2019-09-24T09:58:31Z</time>
      </trkpt>
      <trkpt lat="42.6729430425896" lon="-2.44940427043187">
        <time>2019-09-24T09:58:31Z</time>
      </trkpt>
      <trkpt lat="42.6729645464024" lon="-2.44942075094432">
        <time>2019-09-24T09:58:31Z</time>
      </trkpt>
      <trkpt lat="42.6729866954363" lon="-2.44943850784241">
        <time>2019-09-24T09:58:31Z</time>
      </trkpt>
      <trkpt lat="42.6730091748097" lon="-2.44945772632878">
        <time>2019-09-24T09:58:31Z</time>
      </trkpt>
      <trkpt lat="42.6730320147419" lon="-2.44947867380472">
        <time>2019-09-24T09:58:31Z</time>
      </trkpt>
      <trkpt lat="42.6730551390769" lon="-2.44950094859279">
        <time>2019-09-24T09:58:31Z</time>
      </trkpt>
      <trkpt lat="42.6730774102344" lon="-2.44952344062566">
        <time>2019-09-24T09:58:31Z</time>
      </trkpt>
      <trkpt lat="42.6730963843771" lon="-2.44954390908782">
        <time>2019-09-24T09:58:31Z</time>
      </trkpt>
      <trkpt lat="42.6731098108475" lon="-2.44955894872461">
        <time>2019-09-24T09:58:31Z</time>
      </trkpt>
      <trkpt lat="42.6731210456128" lon="-2.44956740469739">
        <time>2019-09-24T09:58:31Z</time>
      </trkpt>
      <trkpt lat="42.6731317836418" lon="-2.44957930550789">
        <time>2019-09-24T09:58:31Z</time>
      </trkpt>
      <trkpt lat="42.6731484660107" lon="-2.44959697775753">
        <time>2019-09-24T09:58:31Z</time>
      </trkpt>
      <trkpt lat="42.673168138427" lon="-2.44961876991378">
        <time>2019-09-24T09:58:31Z</time>
      </trkpt>
      <trkpt lat="42.6731880202347" lon="-2.44964434507826">
        <time>2019-09-24T09:58:31Z</time>
      </trkpt>
      <trkpt lat="42.6732068722969" lon="-2.44967318908116">
        <time>2019-09-24T09:58:31Z</time>
      </trkpt>
      <trkpt lat="42.6732245980715" lon="-2.44970379906733">
        <time>2019-09-24T09:58:31Z</time>
      </trkpt>
      <trkpt lat="42.6732412006235" lon="-2.44973497988513">
        <time>2019-09-24T09:58:31Z</time>
      </trkpt>
      <trkpt lat="42.6732569184722" lon="-2.44976583947942">
        <time>2019-09-24T09:58:31Z</time>
      </trkpt>
      <trkpt lat="42.6732723528426" lon="-2.44979556613523">
        <time>2019-09-24T09:58:31Z</time>
      </trkpt>
      <trkpt lat="42.673288433803" lon="-2.44982318838843">
        <time>2019-09-24T09:58:31Z</time>
      </trkpt>
      <trkpt lat="42.6733060708601" lon="-2.4498484305506">
        <time>2019-09-24T09:58:31Z</time>
      </trkpt>
      <trkpt lat="42.6733257566408" lon="-2.4498709200219">
        <time>2019-09-24T09:58:31Z</time>
      </trkpt>
      <trkpt lat="42.6733468619756" lon="-2.44989062654712">
        <time>2019-09-24T09:58:31Z</time>
      </trkpt>
      <trkpt lat="42.673366990277" lon="-2.44990964610601">
        <time>2019-09-24T09:58:31Z</time>
      </trkpt>
      <trkpt lat="42.6733842677307" lon="-2.44993126519589">
        <time>2019-09-24T09:58:31Z</time>
      </trkpt>
      <trkpt lat="42.6733989683593" lon="-2.44995648387499">
        <time>2019-09-24T09:58:31Z</time>
      </trkpt>
      <trkpt lat="42.6734120114705" lon="-2.44998339990535">
        <time>2019-09-24T09:58:31Z</time>
      </trkpt>
      <trkpt lat="42.6734243846776" lon="-2.45000966376513">
        <time>2019-09-24T09:58:31Z</time>
      </trkpt>
      <trkpt lat="42.6734371316351" lon="-2.45003306864899">
        <time>2019-09-24T09:58:31Z</time>
      </trkpt>
      <trkpt lat="42.6734508617085" lon="-2.4500529255227">
        <time>2019-09-24T09:58:31Z</time>
      </trkpt>
      <trkpt lat="42.6734660935329" lon="-2.45007061077505">
        <time>2019-09-24T09:58:31Z</time>
      </trkpt>
      <trkpt lat="42.6734832547595" lon="-2.45008872741559">
        <time>2019-09-24T09:58:31Z</time>
      </trkpt>
      <trkpt lat="42.6735019649207" lon="-2.45010873648279">
        <time>2019-09-24T09:58:31Z</time>
      </trkpt>
      <trkpt lat="42.6735209908173" lon="-2.45013057383389">
        <time>2019-09-24T09:58:31Z</time>
      </trkpt>
      <trkpt lat="42.6735396522989" lon="-2.45015354816411">
        <time>2019-09-24T09:58:31Z</time>
      </trkpt>
      <trkpt lat="42.6735576658497" lon="-2.45017651628412">
        <time>2019-09-24T09:58:31Z</time>
      </trkpt>
      <trkpt lat="42.6735746694834" lon="-2.45019928532052">
        <time>2019-09-24T09:58:31Z</time>
      </trkpt>
      <trkpt lat="42.6735903528908" lon="-2.4502229934665">
        <time>2019-09-24T09:58:31Z</time>
      </trkpt>
      <trkpt lat="42.6736051163209" lon="-2.45024794237045">
        <time>2019-09-24T09:58:31Z</time>
      </trkpt>
      <trkpt lat="42.6736192589179" lon="-2.45027328888274">
        <time>2019-09-24T09:58:31Z</time>
      </trkpt>
      <trkpt lat="42.6736323341315" lon="-2.45029747184319">
        <time>2019-09-24T09:58:31Z</time>
      </trkpt>
      <trkpt lat="42.6736431525939" lon="-2.45031697600413">
        <time>2019-09-24T09:58:31Z</time>
      </trkpt>
      <trkpt lat="42.6736502070697" lon="-2.45032889756331">
        <time>2019-09-24T09:58:31Z</time>
      </trkpt>
      <trkpt lat="42.6736532193841" lon="-2.45033530359647">
        <time>2019-09-24T09:58:31Z</time>
      </trkpt>
      <trkpt lat="42.6736573960707" lon="-2.45034263706451">
        <time>2019-09-24T09:58:31Z</time>
      </trkpt>
      <trkpt lat="42.6736634940789" lon="-2.45034845500158">
        <time>2019-09-24T09:58:31Z</time>
      </trkpt>
      <trkpt lat="42.6736740149033" lon="-2.4503638734604">
        <time>2019-09-24T09:58:31Z</time>
      </trkpt>
      <trkpt lat="42.6736884654614" lon="-2.45038576148681">
        <time>2019-09-24T09:58:31Z</time>
      </trkpt>
      <trkpt lat="42.6737052594737" lon="-2.45040994924446">
        <time>2019-09-24T09:58:31Z</time>
      </trkpt>
      <trkpt lat="42.6737233428976" lon="-2.45043438139123">
        <time>2019-09-24T09:58:31Z</time>
      </trkpt>
      <trkpt lat="42.6737426741567" lon="-2.45045799614309">
        <time>2019-09-24T09:58:31Z</time>
      </trkpt>
      <trkpt lat="42.6737628918626" lon="-2.45048072507818">
        <time>2019-09-24T09:58:31Z</time>
      </trkpt>
      <trkpt lat="42.6737831713263" lon="-2.45050295394829">
        <time>2019-09-24T09:58:31Z</time>
      </trkpt>
      <trkpt lat="42.6738030197268" lon="-2.45052553954387">
        <time>2019-09-24T09:58:31Z</time>
      </trkpt>
      <trkpt lat="42.6738224299665" lon="-2.45054883825163">
        <time>2019-09-24T09:58:31Z</time>
      </trkpt>
      <trkpt lat="42.6738411131869" lon="-2.45057269065007">
        <time>2019-09-24T09:58:31Z</time>
      </trkpt>
      <trkpt lat="42.6738584071357" lon="-2.45059777600732">
        <time>2019-09-24T09:58:31Z</time>
      </trkpt>
      <trkpt lat="42.6738742390281" lon="-2.45062413247156">
        <time>2019-09-24T09:58:31Z</time>
      </trkpt>
      <trkpt lat="42.673889395721" lon="-2.45065056820559">
        <time>2019-09-24T09:58:31Z</time>
      </trkpt>
      <trkpt lat="42.6739048255939" lon="-2.45067573139406">
        <time>2019-09-24T09:58:31Z</time>
      </trkpt>
      <trkpt lat="42.6739209712594" lon="-2.45069983807176">
        <time>2019-09-24T09:58:31Z</time>
      </trkpt>
      <trkpt lat="42.673937860313" lon="-2.45072313350192">
        <time>2019-09-24T09:58:31Z</time>
      </trkpt>
      <trkpt lat="42.6739554756425" lon="-2.45074598438987">
        <time>2019-09-24T09:58:31Z</time>
      </trkpt>
      <trkpt lat="42.6739738677896" lon="-2.4507689614343">
        <time>2019-09-24T09:58:31Z</time>
      </trkpt>
      <trkpt lat="42.67399319822" lon="-2.45079241783509">
        <time>2019-09-24T09:58:31Z</time>
      </trkpt>
      <trkpt lat="42.6740136455441" lon="-2.45081608435114">
        <time>2019-09-24T09:58:31Z</time>
      </trkpt>
      <trkpt lat="42.6740351527176" lon="-2.45083908345901">
        <time>2019-09-24T09:58:31Z</time>
      </trkpt>
      <trkpt lat="42.6740573978959" lon="-2.45086014783615">
        <time>2019-09-24T09:58:31Z</time>
      </trkpt>
      <trkpt lat="42.6740799196553" lon="-2.45087854843224">
        <time>2019-09-24T09:58:31Z</time>
      </trkpt>
      <trkpt lat="42.6741018647241" lon="-2.45089526966772">
        <time>2019-09-24T09:58:31Z</time>
      </trkpt>
      <trkpt lat="42.6741213972523" lon="-2.45091207523076">
        <time>2019-09-24T09:58:31Z</time>
      </trkpt>
      <trkpt lat="42.6741366993254" lon="-2.45092764617536">
        <time>2019-09-24T09:58:31Z</time>
      </trkpt>
      <trkpt lat="42.674146349755" lon="-2.45093812997483">
        <time>2019-09-24T09:58:31Z</time>
      </trkpt>
      <trkpt lat="42.6741507284325" lon="-2.45094220538508">
        <time>2019-09-24T09:58:31Z</time>
      </trkpt>
      <trkpt lat="42.6741497417083" lon="-2.45094868249784">
        <time>2019-09-24T09:58:31Z</time>
      </trkpt>
      <trkpt lat="42.6741484262555" lon="-2.45095796878528">
        <time>2019-09-24T09:58:31Z</time>
      </trkpt>
      <trkpt lat="42.6741483231607" lon="-2.45096664597931">
        <time>2019-09-24T09:58:31Z</time>
      </trkpt>
      <trkpt lat="42.6741500322682" lon="-2.45097361254431">
        <time>2019-09-24T09:58:31Z</time>
      </trkpt>
      <trkpt lat="42.6741528693907" lon="-2.45097943371247">
        <time>2019-09-24T09:58:31Z</time>
      </trkpt>
      <trkpt lat="42.6741553926257" lon="-2.45098354761865">
        <time>2019-09-24T09:58:31Z</time>
      </trkpt>
      <trkpt lat="42.6741571518632" lon="-2.45098601107594">
        <time>2019-09-24T09:58:31Z</time>
      </trkpt>
      <trkpt lat="42.6741599697635" lon="-2.45098965865391">
        <time>2019-09-24T09:58:31Z</time>
      </trkpt>
      <trkpt lat="42.6741663616289" lon="-2.45099852419941">
        <time>2019-09-24T09:58:31Z</time>
      </trkpt>
      <trkpt lat="42.6741774895056" lon="-2.4510148888896">
        <time>2019-09-24T09:58:31Z</time>
      </trkpt>
      <trkpt lat="42.6741920392155" lon="-2.45103675420619">
        <time>2019-09-24T09:58:31Z</time>
      </trkpt>
      <trkpt lat="42.6742077517599" lon="-2.45106080352203">
        <time>2019-09-24T09:58:31Z</time>
      </trkpt>
      <trkpt lat="42.6742225463201" lon="-2.45108493594331">
        <time>2019-09-24T09:58:31Z</time>
      </trkpt>
      <trkpt lat="42.6742354221341" lon="-2.45110902388122">
        <time>2019-09-24T09:58:31Z</time>
      </trkpt>
      <trkpt lat="42.6742462910518" lon="-2.45113331191158">
        <time>2019-09-24T09:58:31Z</time>
      </trkpt>
      <trkpt lat="42.6742550524092" lon="-2.45115753324645">
        <time>2019-09-24T09:58:31Z</time>
      </trkpt>
      <trkpt lat="42.6742608535549" lon="-2.45118043886351">
        <time>2019-09-24T09:58:31Z</time>
      </trkpt>
      <trkpt lat="42.6742628917976" lon="-2.45120175450977">
        <time>2019-09-24T09:58:31Z</time>
      </trkpt>
      <trkpt lat="42.6742618732741" lon="-2.45122208262349">
        <time>2019-09-24T09:58:31Z</time>
      </trkpt>
      <trkpt lat="42.6742606061391" lon="-2.45124146158196">
        <time>2019-09-24T09:58:31Z</time>
      </trkpt>
      <trkpt lat="42.6742618045756" lon="-2.4512586962356">
        <time>2019-09-24T09:58:31Z</time>
      </trkpt>
      <trkpt lat="42.674264900506" lon="-2.45127127683617">
        <time>2019-09-24T09:58:31Z</time>
      </trkpt>
      <trkpt lat="42.6742585875323" lon="-2.45127310035912">
        <time>2019-09-24T09:58:31Z</time>
      </trkpt>
      <trkpt lat="42.6742424276936" lon="-2.45127437797046">
        <time>2019-09-24T09:58:31Z</time>
      </trkpt>
      <trkpt lat="42.6742214054719" lon="-2.45127906725569">
        <time>2019-09-24T09:58:31Z</time>
      </trkpt>
      <trkpt lat="42.6742004940203" lon="-2.45128665902746">
        <time>2019-09-24T09:58:31Z</time>
      </trkpt>
      <trkpt lat="42.6741838610971" lon="-2.45129606810537">
        <time>2019-09-24T09:58:31Z</time>
      </trkpt>
      <trkpt lat="42.6741735022394" lon="-2.4513068251373">
        <time>2019-09-24T09:58:31Z</time>
      </trkpt>
      <trkpt lat="42.6741688400019" lon="-2.4513186675336">
        <time>2019-09-24T09:58:31Z</time>
      </trkpt>
      <trkpt lat="42.6741670847698" lon="-2.45132991151136">
        <time>2019-09-24T09:58:31Z</time>
      </trkpt>
      <trkpt lat="42.6741653308118" lon="-2.45133800650775">
        <time>2019-09-24T09:58:31Z</time>
      </trkpt>
      <trkpt lat="42.6741808918211" lon="-2.45133042430625">
        <time>2019-09-24T09:58:31Z</time>
      </trkpt>
      <trkpt lat="42.6741964872387" lon="-2.45132818840004">
        <time>2019-09-24T09:58:31Z</time>
      </trkpt>
      <trkpt lat="42.6742124169758" lon="-2.45132798692182">
        <time>2019-09-24T09:58:31Z</time>
      </trkpt>
      <trkpt lat="42.674231360375" lon="-2.45132896772114">
        <time>2019-09-24T09:58:31Z</time>
      </trkpt>
      <trkpt lat="42.6742511755543" lon="-2.45133151448822">
        <time>2019-09-24T09:58:31Z</time>
      </trkpt>
      <trkpt lat="42.674270926514" lon="-2.45133562522716">
        <time>2019-09-24T09:58:31Z</time>
      </trkpt>
      <trkpt lat="42.674290326446" lon="-2.4513415684284">
        <time>2019-09-24T09:58:31Z</time>
      </trkpt>
      <trkpt lat="42.6743092610821" lon="-2.45135017709671">
        <time>2019-09-24T09:58:31Z</time>
      </trkpt>
      <trkpt lat="42.6743281378238" lon="-2.45136193355218">
        <time>2019-09-24T09:58:31Z</time>
      </trkpt>
      <trkpt lat="42.6743473961393" lon="-2.45137587236059">
        <time>2019-09-24T09:58:31Z</time>
      </trkpt>
      <trkpt lat="42.674366212054" lon="-2.45138990201873">
        <time>2019-09-24T09:58:31Z</time>
      </trkpt>
      <trkpt lat="42.6743825592847" lon="-2.45140148638043">
        <time>2019-09-24T09:58:31Z</time>
      </trkpt>
      <trkpt lat="42.674394253294" lon="-2.45140814353979">
        <time>2019-09-24T09:58:31Z</time>
      </trkpt>
      <trkpt lat="42.6744015492372" lon="-2.45141429209829">
        <time>2019-09-24T09:58:31Z</time>
      </trkpt>
      <trkpt lat="42.674410180462" lon="-2.45142080570304">
        <time>2019-09-24T09:58:31Z</time>
      </trkpt>
      <trkpt lat="42.674423937369" lon="-2.45143134046542">
        <time>2019-09-24T09:58:31Z</time>
      </trkpt>
      <trkpt lat="42.6744393247467" lon="-2.4514418830593">
        <time>2019-09-24T09:58:31Z</time>
      </trkpt>
      <trkpt lat="42.6744543993929" lon="-2.45145122132602">
        <time>2019-09-24T09:58:31Z</time>
      </trkpt>
      <trkpt lat="42.6744718803103" lon="-2.45146284519421">
        <time>2019-09-24T09:58:31Z</time>
      </trkpt>
      <trkpt lat="42.6744920944532" lon="-2.45147725133369">
        <time>2019-09-24T09:58:31Z</time>
      </trkpt>
      <trkpt lat="42.6745149343345" lon="-2.45149458731721">
        <time>2019-09-24T09:58:31Z</time>
      </trkpt>
      <trkpt lat="42.674539209341" lon="-2.45151448683065">
        <time>2019-09-24T09:58:31Z</time>
      </trkpt>
      <trkpt lat="42.6745642160965" lon="-2.45153666111086">
        <time>2019-09-24T09:58:31Z</time>
      </trkpt>
      <trkpt lat="42.6745893577061" lon="-2.45156072668664">
        <time>2019-09-24T09:58:31Z</time>
      </trkpt>
      <trkpt lat="42.6746151097409" lon="-2.45158826666275">
        <time>2019-09-24T09:58:31Z</time>
      </trkpt>
      <trkpt lat="42.6746395340942" lon="-2.4516167679748">
        <time>2019-09-24T09:58:31Z</time>
      </trkpt>
      <trkpt lat="42.6746635307297" lon="-2.45164816632484">
        <time>2019-09-24T09:58:31Z</time>
      </trkpt>
      <trkpt lat="42.6746878484117" lon="-2.45167882875949">
        <time>2019-09-24T09:58:31Z</time>
      </trkpt>
      <trkpt lat="42.6747121790139" lon="-2.45171403302562">
        <time>2019-09-24T09:58:31Z</time>
      </trkpt>
      <trkpt lat="42.6747372489015" lon="-2.45175151201309">
        <time>2019-09-24T09:58:31Z</time>
      </trkpt>
      <trkpt lat="42.6747622163989" lon="-2.45178994327951">
        <time>2019-09-24T09:58:31Z</time>
      </trkpt>
      <trkpt lat="42.6747866199993" lon="-2.45182936838955">
        <time>2019-09-24T09:58:31Z</time>
      </trkpt>
      <trkpt lat="42.6748112334422" lon="-2.45187111038878">
        <time>2019-09-24T09:58:31Z</time>
      </trkpt>
      <trkpt lat="42.6748339904847" lon="-2.45191243056413">
        <time>2019-09-24T09:58:31Z</time>
      </trkpt>
      <trkpt lat="42.6748575145853" lon="-2.45195420606673">
        <time>2019-09-24T09:58:31Z</time>
      </trkpt>
      <trkpt lat="42.6748818853775" lon="-2.45199783083183">
        <time>2019-09-24T09:58:31Z</time>
      </trkpt>
      <trkpt lat="42.6749066001037" lon="-2.45204392816931">
        <time>2019-09-24T09:58:31Z</time>
      </trkpt>
      <trkpt lat="42.6749336620534" lon="-2.45208154846772">
        <time>2019-09-24T09:58:31Z</time>
      </trkpt>
      <trkpt lat="42.6749604412464" lon="-2.45212055057211">
        <time>2019-09-24T09:58:31Z</time>
      </trkpt>
      <trkpt lat="42.6749840085738" lon="-2.45217138246106">
        <time>2019-09-24T09:58:31Z</time>
      </trkpt>
      <trkpt lat="42.6750070426939" lon="-2.45222199913397">
        <time>2019-09-24T09:58:31Z</time>
      </trkpt>
      <trkpt lat="42.6750294435383" lon="-2.45227173142884">
        <time>2019-09-24T09:58:31Z</time>
      </trkpt>
      <trkpt lat="42.6750510143425" lon="-2.45231942001017">
        <time>2019-09-24T09:58:31Z</time>
      </trkpt>
      <trkpt lat="42.6750918919678" lon="-2.45241017801423">
        <time>2019-09-24T09:58:31Z</time>
      </trkpt>
      <trkpt lat="42.6751118800653" lon="-2.45245444002118">
        <time>2019-09-24T09:58:31Z</time>
      </trkpt>
      <trkpt lat="42.6751316621694" lon="-2.45249930059227">
        <time>2019-09-24T09:58:31Z</time>
      </trkpt>
      <trkpt lat="42.6751512719173" lon="-2.45254548062094">
        <time>2019-09-24T09:58:31Z</time>
      </trkpt>
      <trkpt lat="42.6751709655959" lon="-2.45259237942594">
        <time>2019-09-24T09:58:31Z</time>
      </trkpt>
      <trkpt lat="42.6751911032645" lon="-2.45263978755133">
        <time>2019-09-24T09:58:31Z</time>
      </trkpt>
      <trkpt lat="42.6752119661198" lon="-2.45268810489718">
        <time>2019-09-24T09:58:31Z</time>
      </trkpt>
      <trkpt lat="42.675233726792" lon="-2.45273791645087">
        <time>2019-09-24T09:58:31Z</time>
      </trkpt>
      <trkpt lat="42.6752569055" lon="-2.45279041111104">
        <time>2019-09-24T09:58:31Z</time>
      </trkpt>
      <trkpt lat="42.6752824293313" lon="-2.45284741356437">
        <time>2019-09-24T09:58:31Z</time>
      </trkpt>
      <trkpt lat="42.6753104262934" lon="-2.45290938644435">
        <time>2019-09-24T09:58:31Z</time>
      </trkpt>
      <trkpt lat="42.6753413799224" lon="-2.45297589758435">
        <time>2019-09-24T09:58:31Z</time>
      </trkpt>
      <trkpt lat="42.6753755386778" lon="-2.4530457615913">
        <time>2019-09-24T09:58:31Z</time>
      </trkpt>
      <trkpt lat="42.6754124067988" lon="-2.45312106967973">
        <time>2019-09-24T09:58:31Z</time>
      </trkpt>
      <trkpt lat="42.6754510793576" lon="-2.45320095175404">
        <time>2019-09-24T09:58:31Z</time>
      </trkpt>
      <trkpt lat="42.6754908358651" lon="-2.45328364270438">
        <time>2019-09-24T09:58:31Z</time>
      </trkpt>
      <trkpt lat="42.6755313376481" lon="-2.45336935351172">
        <time>2019-09-24T09:58:31Z</time>
      </trkpt>
      <trkpt lat="42.6755724131103" lon="-2.45345824424867">
        <time>2019-09-24T09:58:31Z</time>
      </trkpt>
      <trkpt lat="42.6756129542969" lon="-2.45354485855954">
        <time>2019-09-24T09:58:31Z</time>
      </trkpt>
      <trkpt lat="42.6756518582616" lon="-2.45363375661234">
        <time>2019-09-24T09:58:31Z</time>
      </trkpt>
      <trkpt lat="42.6756881347725" lon="-2.45371356311063">
        <time>2019-09-24T09:58:31Z</time>
      </trkpt>
      <trkpt lat="42.6757221067157" lon="-2.45379737776535">
        <time>2019-09-24T09:58:31Z</time>
      </trkpt>
      <trkpt lat="42.6757577143981" lon="-2.45388601344078">
        <time>2019-09-24T09:58:31Z</time>
      </trkpt>
      <trkpt lat="42.6757950313056" lon="-2.453972717887">
        <time>2019-09-24T09:58:31Z</time>
      </trkpt>
      <trkpt lat="42.6758376549708" lon="-2.45405606667389">
        <time>2019-09-24T09:58:31Z</time>
      </trkpt>
      <trkpt lat="42.6758800255359" lon="-2.45414281235934">
        <time>2019-09-24T09:58:31Z</time>
      </trkpt>
      <trkpt lat="42.6759224378836" lon="-2.45422725098804">
        <time>2019-09-24T09:58:31Z</time>
      </trkpt>
      <trkpt lat="42.6759596646031" lon="-2.45431197890272">
        <time>2019-09-24T09:58:31Z</time>
      </trkpt>
      <trkpt lat="42.6759906626886" lon="-2.45439539401772">
        <time>2019-09-24T09:58:31Z</time>
      </trkpt>
      <trkpt lat="42.6760163867593" lon="-2.45446634774224">
        <time>2019-09-24T09:58:31Z</time>
      </trkpt>
      <trkpt lat="42.6760391527639" lon="-2.45452295967837">
        <time>2019-09-24T09:58:31Z</time>
      </trkpt>
      <trkpt lat="42.6760601468539" lon="-2.45456888510001">
        <time>2019-09-24T09:58:31Z</time>
      </trkpt>
      <trkpt lat="42.6760799569139" lon="-2.45461397865266">
        <time>2019-09-24T09:58:31Z</time>
      </trkpt>
      <trkpt lat="42.6760982069412" lon="-2.45465853687375">
        <time>2019-09-24T09:58:31Z</time>
      </trkpt>
      <trkpt lat="42.6761141631975" lon="-2.45470355505238">
        <time>2019-09-24T09:58:31Z</time>
      </trkpt>
      <trkpt lat="42.6761268438398" lon="-2.45475102975413">
        <time>2019-09-24T09:58:31Z</time>
      </trkpt>
      <trkpt lat="42.6761360517162" lon="-2.45480103771454">
        <time>2019-09-24T09:58:31Z</time>
      </trkpt>
      <trkpt lat="42.6761430134201" lon="-2.45485040549791">
        <time>2019-09-24T09:58:31Z</time>
      </trkpt>
      <trkpt lat="42.6761459813231" lon="-2.45490252931488">
        <time>2019-09-24T09:58:31Z</time>
      </trkpt>
      <trkpt lat="42.6761449320258" lon="-2.45495645799004">
        <time>2019-09-24T09:58:31Z</time>
      </trkpt>
      <trkpt lat="42.6761415268824" lon="-2.45501128700701">
        <time>2019-09-24T09:58:31Z</time>
      </trkpt>
      <trkpt lat="42.6761362986746" lon="-2.45506503224158">
        <time>2019-09-24T09:58:31Z</time>
      </trkpt>
      <trkpt lat="42.6761210541733" lon="-2.45517149208015">
        <time>2019-09-24T09:58:31Z</time>
      </trkpt>
      <trkpt lat="42.676110678148" lon="-2.45523162981977">
        <time>2019-09-24T09:58:31Z</time>
      </trkpt>
      <trkpt lat="42.6760986979205" lon="-2.45529358710347">
        <time>2019-09-24T09:58:31Z</time>
      </trkpt>
      <trkpt lat="42.676087510175" lon="-2.45535182744466">
        <time>2019-09-24T09:58:31Z</time>
      </trkpt>
      <trkpt lat="42.6760768725252" lon="-2.45540802553207">
        <time>2019-09-24T09:58:31Z</time>
      </trkpt>
      <trkpt lat="42.6760666930329" lon="-2.45546242427548">
        <time>2019-09-24T09:58:31Z</time>
      </trkpt>
      <trkpt lat="42.6760570327262" lon="-2.4555159523487">
        <time>2019-09-24T09:58:31Z</time>
      </trkpt>
      <trkpt lat="42.6760479913807" lon="-2.45557107425771">
        <time>2019-09-24T09:58:31Z</time>
      </trkpt>
      <trkpt lat="42.6760402780997" lon="-2.45562690405513">
        <time>2019-09-24T09:58:31Z</time>
      </trkpt>
      <trkpt lat="42.676034990015" lon="-2.45568134700298">
        <time>2019-09-24T09:58:31Z</time>
      </trkpt>
      <trkpt lat="42.6760328185446" lon="-2.45573244148451">
        <time>2019-09-24T09:58:31Z</time>
      </trkpt>
      <trkpt lat="42.6760340419621" lon="-2.45577944342172">
        <time>2019-09-24T09:58:31Z</time>
      </trkpt>
      <trkpt lat="42.6760386701284" lon="-2.45582283865011">
        <time>2019-09-24T09:58:31Z</time>
      </trkpt>
      <trkpt lat="42.676046885678" lon="-2.45586320186003">
        <time>2019-09-24T09:58:31Z</time>
      </trkpt>
      <trkpt lat="42.6760589916877" lon="-2.45590183300493">
        <time>2019-09-24T09:58:31Z</time>
      </trkpt>
      <trkpt lat="42.6760742378808" lon="-2.4559359817099">
        <time>2019-09-24T09:58:31Z</time>
      </trkpt>
      <trkpt lat="42.6760933621584" lon="-2.45597135487322">
        <time>2019-09-24T09:58:31Z</time>
      </trkpt>
      <trkpt lat="42.6761179778735" lon="-2.45601574887301">
        <time>2019-09-24T09:58:31Z</time>
      </trkpt>
      <trkpt lat="42.6761451594203" lon="-2.45606558665121">
        <time>2019-09-24T09:58:31Z</time>
      </trkpt>
      <trkpt lat="42.6761767765645" lon="-2.45612225851569">
        <time>2019-09-24T09:58:31Z</time>
      </trkpt>
      <trkpt lat="42.6762080602604" lon="-2.45618660910307">
        <time>2019-09-24T09:58:31Z</time>
      </trkpt>
      <trkpt lat="42.6762395232702" lon="-2.45625428969787">
        <time>2019-09-24T09:58:31Z</time>
      </trkpt>
      <trkpt lat="42.6762740645672" lon="-2.4563200885266">
        <time>2019-09-24T09:58:31Z</time>
      </trkpt>
      <trkpt lat="42.6763100811439" lon="-2.45638527783255">
        <time>2019-09-24T09:58:31Z</time>
      </trkpt>
      <trkpt lat="42.6763463302803" lon="-2.45645017193236">
        <time>2019-09-24T09:58:31Z</time>
      </trkpt>
      <trkpt lat="42.6763825847203" lon="-2.45651460060412">
        <time>2019-09-24T09:58:31Z</time>
      </trkpt>
      <trkpt lat="42.6764153081572" lon="-2.4565860061669">
        <time>2019-09-24T09:58:31Z</time>
      </trkpt>
      <trkpt lat="42.6764464197837" lon="-2.45665975654166">
        <time>2019-09-24T09:58:31Z</time>
      </trkpt>
      <trkpt lat="42.6764813922894" lon="-2.45673270442236">
        <time>2019-09-24T09:58:31Z</time>
      </trkpt>
      <trkpt lat="42.6765135567206" lon="-2.45681174313716">
        <time>2019-09-24T09:58:31Z</time>
      </trkpt>
      <trkpt lat="42.6765575717899" lon="-2.45686792755693">
        <time>2019-09-24T09:58:31Z</time>
      </trkpt>
      <trkpt lat="42.676593708401" lon="-2.45693594669115">
        <time>2019-09-24T09:58:31Z</time>
      </trkpt>
      <trkpt lat="42.6766280917052" lon="-2.4569950368521">
        <time>2019-09-24T09:58:31Z</time>
      </trkpt>
      <trkpt lat="42.6766510870721" lon="-2.45705677514035">
        <time>2019-09-24T09:58:31Z</time>
      </trkpt>
      <trkpt lat="42.6766662836588" lon="-2.4571107947071">
        <time>2019-09-24T09:58:31Z</time>
      </trkpt>
      <trkpt lat="42.6766784554849" lon="-2.45716712358927">
        <time>2019-09-24T09:58:31Z</time>
      </trkpt>
      <trkpt lat="42.6766881994473" lon="-2.4572165906164">
        <time>2019-09-24T09:58:31Z</time>
      </trkpt>
      <trkpt lat="42.6767013573565" lon="-2.45725482282809">
        <time>2019-09-24T09:58:31Z</time>
      </trkpt>
      <trkpt lat="42.6767261065888" lon="-2.45733122931913">
        <time>2019-09-24T09:58:31Z</time>
      </trkpt>
      <trkpt lat="42.6767307875954" lon="-2.45738404640836">
        <time>2019-09-24T09:58:31Z</time>
      </trkpt>
      <trkpt lat="42.6767333798004" lon="-2.45743704194168">
        <time>2019-09-24T09:58:31Z</time>
      </trkpt>
      <trkpt lat="42.6767364654114" lon="-2.457479999376">
        <time>2019-09-24T09:58:31Z</time>
      </trkpt>
      <trkpt lat="42.6767310146407" lon="-2.45758024849794">
        <time>2019-09-24T09:58:31Z</time>
      </trkpt>
      <trkpt lat="42.6767256051126" lon="-2.45763049357403">
        <time>2019-09-24T09:58:31Z</time>
      </trkpt>
      <trkpt lat="42.6767244427089" lon="-2.4576682400148">
        <time>2019-09-24T09:58:31Z</time>
      </trkpt>
      <trkpt lat="42.6767274606148" lon="-2.45770089825525">
        <time>2019-09-24T09:58:31Z</time>
      </trkpt>
      <trkpt lat="42.6767335674332" lon="-2.45773151606458">
        <time>2019-09-24T09:58:31Z</time>
      </trkpt>
      <trkpt lat="42.676740469766" lon="-2.45776488391908">
        <time>2019-09-24T09:58:31Z</time>
      </trkpt>
      <trkpt lat="42.6767474007019" lon="-2.45780217128404">
        <time>2019-09-24T09:58:31Z</time>
      </trkpt>
      <trkpt lat="42.6767660496076" lon="-2.45787040452872">
        <time>2019-09-24T09:58:31Z</time>
      </trkpt>
      <trkpt lat="42.6767749178012" lon="-2.45790607410746">
        <time>2019-09-24T09:58:31Z</time>
      </trkpt>
      <trkpt lat="42.6767859390007" lon="-2.45794184774609">
        <time>2019-09-24T09:58:31Z</time>
      </trkpt>
      <trkpt lat="42.6767994479457" lon="-2.4579764165231">
        <time>2019-09-24T09:58:31Z</time>
      </trkpt>
      <trkpt lat="42.6768136724218" lon="-2.45800773281052">
        <time>2019-09-24T09:58:31Z</time>
      </trkpt>
      <trkpt lat="42.6768326229508" lon="-2.45804268058597">
        <time>2019-09-24T09:58:31Z</time>
      </trkpt>
      <trkpt lat="42.676853865995" lon="-2.45808249154068">
        <time>2019-09-24T09:58:31Z</time>
      </trkpt>
      <trkpt lat="42.6768783104705" lon="-2.4581251663663">
        <time>2019-09-24T09:58:31Z</time>
      </trkpt>
      <trkpt lat="42.6769075102697" lon="-2.45817926083284">
        <time>2019-09-24T09:58:31Z</time>
      </trkpt>
      <trkpt lat="42.6769410828896" lon="-2.45823838118149">
        <time>2019-09-24T09:58:31Z</time>
      </trkpt>
      <trkpt lat="42.6769795941812" lon="-2.45830193941314">
        <time>2019-09-24T09:58:31Z</time>
      </trkpt>
      <trkpt lat="42.6770203571679" lon="-2.45837158032602">
        <time>2019-09-24T09:58:31Z</time>
      </trkpt>
      <trkpt lat="42.6770645951245" lon="-2.45843888430955">
        <time>2019-09-24T09:58:31Z</time>
      </trkpt>
      <trkpt lat="42.6771073986669" lon="-2.45850561432319">
        <time>2019-09-24T09:58:31Z</time>
      </trkpt>
      <trkpt lat="42.6771443340537" lon="-2.45856929568651">
        <time>2019-09-24T09:58:31Z</time>
      </trkpt>
      <trkpt lat="42.677178503841" lon="-2.45863103527013">
        <time>2019-09-24T09:58:31Z</time>
      </trkpt>
      <trkpt lat="42.6772119590881" lon="-2.45869199000473">
        <time>2019-09-24T09:58:31Z</time>
      </trkpt>
      <trkpt lat="42.6772432625234" lon="-2.45875097204166">
        <time>2019-09-24T09:58:31Z</time>
      </trkpt>
      <trkpt lat="42.6772718882515" lon="-2.45880770802025">
        <time>2019-09-24T09:58:31Z</time>
      </trkpt>
      <trkpt lat="42.6772980370913" lon="-2.45886049971674">
        <time>2019-09-24T09:58:31Z</time>
      </trkpt>
      <trkpt lat="42.6773218939424" lon="-2.45891040431909">
        <time>2019-09-24T09:58:31Z</time>
      </trkpt>
      <trkpt lat="42.677366137029" lon="-2.45899990974443">
        <time>2019-09-24T09:58:31Z</time>
      </trkpt>
      <trkpt lat="42.6773870300887" lon="-2.45904000572442">
        <time>2019-09-24T09:58:31Z</time>
      </trkpt>
      <trkpt lat="42.6774060807891" lon="-2.45907705211894">
        <time>2019-09-24T09:58:31Z</time>
      </trkpt>
      <trkpt lat="42.6774239452453" lon="-2.45911092388268">
        <time>2019-09-24T09:58:31Z</time>
      </trkpt>
      <trkpt lat="42.6774442254165" lon="-2.45914698440038">
        <time>2019-09-24T09:58:31Z</time>
      </trkpt>
      <trkpt lat="42.6774617877689" lon="-2.45917602685198">
        <time>2019-09-24T09:58:31Z</time>
      </trkpt>
      <trkpt lat="42.6774985512453" lon="-2.45925480825336">
        <time>2019-09-24T09:58:31Z</time>
      </trkpt>
      <trkpt lat="42.6775196244999" lon="-2.45929311940919">
        <time>2019-09-24T09:58:31Z</time>
      </trkpt>
      <trkpt lat="42.6775434367492" lon="-2.45932801389432">
        <time>2019-09-24T09:58:31Z</time>
      </trkpt>
      <trkpt lat="42.6775689148468" lon="-2.45936055129284">
        <time>2019-09-24T09:58:31Z</time>
      </trkpt>
      <trkpt lat="42.6775945106202" lon="-2.45938976805452">
        <time>2019-09-24T09:58:31Z</time>
      </trkpt>
      <trkpt lat="42.6776179755787" lon="-2.459419588123">
        <time>2019-09-24T09:58:31Z</time>
      </trkpt>
      <trkpt lat="42.6776465660875" lon="-2.45944786339183">
        <time>2019-09-24T09:58:31Z</time>
      </trkpt>
      <trkpt lat="42.6776756213959" lon="-2.45947546288622">
        <time>2019-09-24T09:58:31Z</time>
      </trkpt>
      <trkpt lat="42.6777093647657" lon="-2.45949998346101">
        <time>2019-09-24T09:58:31Z</time>
      </trkpt>
      <trkpt lat="42.6777429168031" lon="-2.45952821581831">
        <time>2019-09-24T09:58:31Z</time>
      </trkpt>
      <trkpt lat="42.6777826422676" lon="-2.45955915342393">
        <time>2019-09-24T09:58:31Z</time>
      </trkpt>
      <trkpt lat="42.677827995903" lon="-2.45959402009863">
        <time>2019-09-24T09:58:31Z</time>
      </trkpt>
      <trkpt lat="42.6778697875202" lon="-2.45962585377506">
        <time>2019-09-24T09:58:31Z</time>
      </trkpt>
      <trkpt lat="42.6779094096685" lon="-2.45966183241836">
        <time>2019-09-24T09:58:31Z</time>
      </trkpt>
      <trkpt lat="42.6779509687784" lon="-2.45969772101377">
        <time>2019-09-24T09:58:31Z</time>
      </trkpt>
      <trkpt lat="42.6779963992037" lon="-2.45972993932823">
        <time>2019-09-24T09:58:31Z</time>
      </trkpt>
      <trkpt lat="42.6780392949449" lon="-2.45976275423251">
        <time>2019-09-24T09:58:31Z</time>
      </trkpt>
      <trkpt lat="42.6780827983266" lon="-2.45979690576819">
        <time>2019-09-24T09:58:31Z</time>
      </trkpt>
      <trkpt lat="42.6781271108527" lon="-2.45983243993462">
        <time>2019-09-24T09:58:31Z</time>
      </trkpt>
      <trkpt lat="42.67817055556" lon="-2.45987096204106">
        <time>2019-09-24T09:58:31Z</time>
      </trkpt>
      <trkpt lat="42.6782151675521" lon="-2.45990517744008">
        <time>2019-09-24T09:58:31Z</time>
      </trkpt>
      <trkpt lat="42.6782594526578" lon="-2.45993676998322">
        <time>2019-09-24T09:58:31Z</time>
      </trkpt>
      <trkpt lat="42.6783339291599" lon="-2.45999840799578">
        <time>2019-09-24T09:58:31Z</time>
      </trkpt>
      <trkpt lat="42.6783682004054" lon="-2.46002818454296">
        <time>2019-09-24T09:58:31Z</time>
      </trkpt>
      <trkpt lat="42.6783999163728" lon="-2.4600584589442">
        <time>2019-09-24T09:58:31Z</time>
      </trkpt>
      <trkpt lat="42.6784283361497" lon="-2.4600887141664">
        <time>2019-09-24T09:58:31Z</time>
      </trkpt>
      <trkpt lat="42.6784535409194" lon="-2.46011882503509">
        <time>2019-09-24T09:58:31Z</time>
      </trkpt>
      <trkpt lat="42.6784754329825" lon="-2.46014941643146">
        <time>2019-09-24T09:58:31Z</time>
      </trkpt>
      <trkpt lat="42.6784940895056" lon="-2.46017951070176">
        <time>2019-09-24T09:58:31Z</time>
      </trkpt>
      <trkpt lat="42.6785099556766" lon="-2.46020773825972">
        <time>2019-09-24T09:58:31Z</time>
      </trkpt>
      <trkpt lat="42.6785223838317" lon="-2.46023094357954">
        <time>2019-09-24T09:58:31Z</time>
      </trkpt>
      <trkpt lat="42.6785363657966" lon="-2.46025497604309">
        <time>2019-09-24T09:58:31Z</time>
      </trkpt>
      <trkpt lat="42.6785544277019" lon="-2.46028677202473">
        <time>2019-09-24T09:58:31Z</time>
      </trkpt>
      <trkpt lat="42.6785696880435" lon="-2.46031645756538">
        <time>2019-09-24T09:58:31Z</time>
      </trkpt>
      <trkpt lat="42.6785870641285" lon="-2.46035195772859">
        <time>2019-09-24T09:58:31Z</time>
      </trkpt>
      <trkpt lat="42.6786051735146" lon="-2.4603901011875">
        <time>2019-09-24T09:58:31Z</time>
      </trkpt>
      <trkpt lat="42.6786234217389" lon="-2.46042887773962">
        <time>2019-09-24T09:58:31Z</time>
      </trkpt>
      <trkpt lat="42.678641704596" lon="-2.46046753125246">
        <time>2019-09-24T09:58:31Z</time>
      </trkpt>
      <trkpt lat="42.6786601665874" lon="-2.46050602467045">
        <time>2019-09-24T09:58:31Z</time>
      </trkpt>
      <trkpt lat="42.6786790263265" lon="-2.46054456411725">
        <time>2019-09-24T09:58:31Z</time>
      </trkpt>
      <trkpt lat="42.6786985795656" lon="-2.46058344030193">
        <time>2019-09-24T09:58:31Z</time>
      </trkpt>
      <trkpt lat="42.6787192685904" lon="-2.46062253686921">
        <time>2019-09-24T09:58:31Z</time>
      </trkpt>
      <trkpt lat="42.6787412994857" lon="-2.46066153660788">
        <time>2019-09-24T09:58:31Z</time>
      </trkpt>
      <trkpt lat="42.6787644285429" lon="-2.46070024725329">
        <time>2019-09-24T09:58:31Z</time>
      </trkpt>
      <trkpt lat="42.6787883377594" lon="-2.46073846183689">
        <time>2019-09-24T09:58:31Z</time>
      </trkpt>
      <trkpt lat="42.6788130262193" lon="-2.46077571830224">
        <time>2019-09-24T09:58:31Z</time>
      </trkpt>
      <trkpt lat="42.6788387164109" lon="-2.46081170952444">
        <time>2019-09-24T09:58:31Z</time>
      </trkpt>
      <trkpt lat="42.678865608237" lon="-2.46084640820015">
        <time>2019-09-24T09:58:31Z</time>
      </trkpt>
      <trkpt lat="42.6788938731332" lon="-2.46088015385593">
        <time>2019-09-24T09:58:31Z</time>
      </trkpt>
      <trkpt lat="42.6789228731438" lon="-2.46091318730195">
        <time>2019-09-24T09:58:31Z</time>
      </trkpt>
      <trkpt lat="42.6789525923661" lon="-2.46094587184968">
        <time>2019-09-24T09:58:31Z</time>
      </trkpt>
      <trkpt lat="42.6789833013436" lon="-2.4609784881988">
        <time>2019-09-24T09:58:31Z</time>
      </trkpt>
      <trkpt lat="42.6790147485809" lon="-2.46101106068954">
        <time>2019-09-24T09:58:31Z</time>
      </trkpt>
      <trkpt lat="42.6790471049975" lon="-2.46104355204019">
        <time>2019-09-24T09:58:31Z</time>
      </trkpt>
      <trkpt lat="42.6790804864325" lon="-2.46107571572467">
        <time>2019-09-24T09:58:31Z</time>
      </trkpt>
      <trkpt lat="42.6791144173886" lon="-2.46110809635174">
        <time>2019-09-24T09:58:31Z</time>
      </trkpt>
      <trkpt lat="42.6791484060931" lon="-2.46114098802904">
        <time>2019-09-24T09:58:31Z</time>
      </trkpt>
      <trkpt lat="42.6791821964333" lon="-2.46117396841305">
        <time>2019-09-24T09:58:31Z</time>
      </trkpt>
      <trkpt lat="42.6792154362077" lon="-2.46120651368589">
        <time>2019-09-24T09:58:31Z</time>
      </trkpt>
      <trkpt lat="42.6792478784954" lon="-2.46123828326384">
        <time>2019-09-24T09:58:31Z</time>
      </trkpt>
      <trkpt lat="42.6792798678927" lon="-2.46126925370757">
        <time>2019-09-24T09:58:31Z</time>
      </trkpt>
      <trkpt lat="42.6793120241127" lon="-2.46129931735986">
        <time>2019-09-24T09:58:31Z</time>
      </trkpt>
      <trkpt lat="42.6793448760357" lon="-2.46132804509403">
        <time>2019-09-24T09:58:31Z</time>
      </trkpt>
      <trkpt lat="42.6793788425111" lon="-2.46135461657137">
        <time>2019-09-24T09:58:31Z</time>
      </trkpt>
      <trkpt lat="42.6794142201787" lon="-2.46137844098447">
        <time>2019-09-24T09:58:31Z</time>
      </trkpt>
      <trkpt lat="42.6794511333497" lon="-2.4613994678102">
        <time>2019-09-24T09:58:31Z</time>
      </trkpt>
      <trkpt lat="42.6794895393902" lon="-2.46141799409305">
        <time>2019-09-24T09:58:31Z</time>
      </trkpt>
      <trkpt lat="42.6795292403873" lon="-2.46143446996864">
        <time>2019-09-24T09:58:31Z</time>
      </trkpt>
      <trkpt lat="42.6795701778011" lon="-2.46144928810296">
        <time>2019-09-24T09:58:31Z</time>
      </trkpt>
      <trkpt lat="42.6796123861115" lon="-2.46146282501405">
        <time>2019-09-24T09:58:31Z</time>
      </trkpt>
      <trkpt lat="42.6796557706966" lon="-2.46147529123955">
        <time>2019-09-24T09:58:31Z</time>
      </trkpt>
      <trkpt lat="42.6797001125927" lon="-2.46148667332282">
        <time>2019-09-24T09:58:31Z</time>
      </trkpt>
      <trkpt lat="42.679745369501" lon="-2.46149707222597">
        <time>2019-09-24T09:58:31Z</time>
      </trkpt>
      <trkpt lat="42.679791936145" lon="-2.46150669085227">
        <time>2019-09-24T09:58:31Z</time>
      </trkpt>
      <trkpt lat="42.6798406454406" lon="-2.46151581528104">
        <time>2019-09-24T09:58:31Z</time>
      </trkpt>
      <trkpt lat="42.6798920819569" lon="-2.46152489060307">
        <time>2019-09-24T09:58:31Z</time>
      </trkpt>
      <trkpt lat="42.6799453759199" lon="-2.46153435400547">
        <time>2019-09-24T09:58:31Z</time>
      </trkpt>
      <trkpt lat="42.6799986015571" lon="-2.46154453755304">
        <time>2019-09-24T09:58:31Z</time>
      </trkpt>
      <trkpt lat="42.680050325551" lon="-2.46155535643196">
        <time>2019-09-24T09:58:31Z</time>
      </trkpt>
      <trkpt lat="42.6800998882449" lon="-2.4615661820505">
        <time>2019-09-24T09:58:31Z</time>
      </trkpt>
      <trkpt lat="42.6801468734018" lon="-2.46157651670891">
        <time>2019-09-24T09:58:31Z</time>
      </trkpt>
      <trkpt lat="42.680191308882" lon="-2.46158666707794">
        <time>2019-09-24T09:58:31Z</time>
      </trkpt>
      <trkpt lat="42.6802339790999" lon="-2.46159677131635">
        <time>2019-09-24T09:58:31Z</time>
      </trkpt>
      <trkpt lat="42.6802759750292" lon="-2.46160714908594">
        <time>2019-09-24T09:58:31Z</time>
      </trkpt>
      <trkpt lat="42.6803180983036" lon="-2.46161758715284">
        <time>2019-09-24T09:58:31Z</time>
      </trkpt>
      <trkpt lat="42.6803606261958" lon="-2.46162792455146">
        <time>2019-09-24T09:58:31Z</time>
      </trkpt>
      <trkpt lat="42.6804035833373" lon="-2.46163778083607">
        <time>2019-09-24T09:58:31Z</time>
      </trkpt>
      <trkpt lat="42.6804467782322" lon="-2.46164656258498">
        <time>2019-09-24T09:58:31Z</time>
      </trkpt>
      <trkpt lat="42.6804899235363" lon="-2.46165416144578">
        <time>2019-09-24T09:58:31Z</time>
      </trkpt>
      <trkpt lat="42.680532499984" lon="-2.46166144637584">
        <time>2019-09-24T09:58:31Z</time>
      </trkpt>
      <trkpt lat="42.6805740787893" lon="-2.46166926509275">
        <time>2019-09-24T09:58:31Z</time>
      </trkpt>
      <trkpt lat="42.6806144433442" lon="-2.46167730232056">
        <time>2019-09-24T09:58:31Z</time>
      </trkpt>
      <trkpt lat="42.6806536264533" lon="-2.46168504283954">
        <time>2019-09-24T09:58:31Z</time>
      </trkpt>
      <trkpt lat="42.6806916911448" lon="-2.46169251338615">
        <time>2019-09-24T09:58:31Z</time>
      </trkpt>
      <trkpt lat="42.6807289003403" lon="-2.46169997938949">
        <time>2019-09-24T09:58:31Z</time>
      </trkpt>
      <trkpt lat="42.6807642226083" lon="-2.4617080124311">
        <time>2019-09-24T09:58:31Z</time>
      </trkpt>
      <trkpt lat="42.6807962582798" lon="-2.46172020869425">
        <time>2019-09-24T09:58:31Z</time>
      </trkpt>
      <trkpt lat="42.6808258639389" lon="-2.46173091352382">
        <time>2019-09-24T09:58:31Z</time>
      </trkpt>
      <trkpt lat="42.6808514247014" lon="-2.46173915189876">
        <time>2019-09-24T09:58:31Z</time>
      </trkpt>
      <trkpt lat="42.6808738657462" lon="-2.46175253078041">
        <time>2019-09-24T09:58:31Z</time>
      </trkpt>
      <trkpt lat="42.6808922651202" lon="-2.46177002143088">
        <time>2019-09-24T09:58:31Z</time>
      </trkpt>
      <trkpt lat="42.6809103464637" lon="-2.46178890619358">
        <time>2019-09-24T09:58:31Z</time>
      </trkpt>
      <trkpt lat="42.6809303238268" lon="-2.46180674984403">
        <time>2019-09-24T09:58:31Z</time>
      </trkpt>
      <trkpt lat="42.6809528767395" lon="-2.46182278775152">
        <time>2019-09-24T09:58:31Z</time>
      </trkpt>
      <trkpt lat="42.6809772748263" lon="-2.4618368693492">
        <time>2019-09-24T09:58:31Z</time>
      </trkpt>
      <trkpt lat="42.6810012694187" lon="-2.46184914874095">
        <time>2019-09-24T09:58:31Z</time>
      </trkpt>
      <trkpt lat="42.6810278475282" lon="-2.46187471073314">
        <time>2019-09-24T09:58:31Z</time>
      </trkpt>
      <trkpt lat="42.6810405971994" lon="-2.46188180136153">
        <time>2019-09-24T09:58:31Z</time>
      </trkpt>
      <trkpt lat="42.6810566061843" lon="-2.46188909747099">
        <time>2019-09-24T09:58:31Z</time>
      </trkpt>
      <trkpt lat="42.6810797297324" lon="-2.46189806287884">
        <time>2019-09-24T09:58:31Z</time>
      </trkpt>
      <trkpt lat="42.6811089823906" lon="-2.46190834461053">
        <time>2019-09-24T09:58:31Z</time>
      </trkpt>
      <trkpt lat="42.681141959931" lon="-2.46191965478931">
        <time>2019-09-24T09:58:31Z</time>
      </trkpt>
      <trkpt lat="42.681175657454" lon="-2.46193104572876">
        <time>2019-09-24T09:58:31Z</time>
      </trkpt>
      <trkpt lat="42.6812081813054" lon="-2.46194165222737">
        <time>2019-09-24T09:58:31Z</time>
      </trkpt>
      <trkpt lat="42.681239539899" lon="-2.46195139066064">
        <time>2019-09-24T09:58:31Z</time>
      </trkpt>
      <trkpt lat="42.6812709940935" lon="-2.46196059117078">
        <time>2019-09-24T09:58:31Z</time>
      </trkpt>
      <trkpt lat="42.6813044650274" lon="-2.4619698100999">
        <time>2019-09-24T09:58:31Z</time>
      </trkpt>
      <trkpt lat="42.6813418923168" lon="-2.46197952008278">
        <time>2019-09-24T09:58:31Z</time>
      </trkpt>
      <trkpt lat="42.6813838990144" lon="-2.46199005676912">
        <time>2019-09-24T09:58:31Z</time>
      </trkpt>
      <trkpt lat="42.6814297899667" lon="-2.46200153699131">
        <time>2019-09-24T09:58:31Z</time>
      </trkpt>
      <trkpt lat="42.681478739525" lon="-2.46201415032225">
        <time>2019-09-24T09:58:31Z</time>
      </trkpt>
      <trkpt lat="42.6815303076214" lon="-2.46202795001048">
        <time>2019-09-24T09:58:31Z</time>
      </trkpt>
      <trkpt lat="42.6815842575755" lon="-2.4620429005896">
        <time>2019-09-24T09:58:31Z</time>
      </trkpt>
      <trkpt lat="42.6816404897739" lon="-2.46205868577201">
        <time>2019-09-24T09:58:31Z</time>
      </trkpt>
      <trkpt lat="42.6816986222923" lon="-2.46207461316811">
        <time>2019-09-24T09:58:31Z</time>
      </trkpt>
      <trkpt lat="42.6817575096578" lon="-2.46209000890663">
        <time>2019-09-24T09:58:31Z</time>
      </trkpt>
      <trkpt lat="42.6818151769338" lon="-2.46210464789234">
        <time>2019-09-24T09:58:31Z</time>
      </trkpt>
      <trkpt lat="42.6818692219594" lon="-2.46211868213355">
        <time>2019-09-24T09:58:31Z</time>
      </trkpt>
      <trkpt lat="42.6819178071428" lon="-2.4621322007941">
        <time>2019-09-24T09:58:31Z</time>
      </trkpt>
      <trkpt lat="42.6819608167631" lon="-2.46214547598203">
        <time>2019-09-24T09:58:31Z</time>
      </trkpt>
      <trkpt lat="42.681999476054" lon="-2.4621587528961">
        <time>2019-09-24T09:58:31Z</time>
      </trkpt>
      <trkpt lat="42.6820356767494" lon="-2.4621719521307">
        <time>2019-09-24T09:58:31Z</time>
      </trkpt>
      <trkpt lat="42.6820708681855" lon="-2.46218481905815">
        <time>2019-09-24T09:58:31Z</time>
      </trkpt>
      <trkpt lat="42.6821055516074" lon="-2.46219720100889">
        <time>2019-09-24T09:58:31Z</time>
      </trkpt>
      <trkpt lat="42.6821395044217" lon="-2.46220911524737">
        <time>2019-09-24T09:58:31Z</time>
      </trkpt>
      <trkpt lat="42.6821719590012" lon="-2.46222051553245">
        <time>2019-09-24T09:58:31Z</time>
      </trkpt>
      <trkpt lat="42.6822018358246" lon="-2.46223110936267">
        <time>2019-09-24T09:58:31Z</time>
      </trkpt>
      <trkpt lat="42.6822275288759" lon="-2.46224100607066">
        <time>2019-09-24T09:58:31Z</time>
      </trkpt>
      <trkpt lat="42.6822466506613" lon="-2.46225107027941">
        <time>2019-09-24T09:58:31Z</time>
      </trkpt>
      <trkpt lat="42.6822731515109" lon="-2.46227359336333">
        <time>2019-09-24T09:58:31Z</time>
      </trkpt>
      <trkpt lat="42.6822774998823" lon="-2.46227907197568">
        <time>2019-09-24T09:58:31Z</time>
      </trkpt>
      <trkpt lat="42.6822864319073" lon="-2.46228655040851">
        <time>2019-09-24T09:58:31Z</time>
      </trkpt>
      <trkpt lat="42.6823006901333" lon="-2.46229475193824">
        <time>2019-09-24T09:58:31Z</time>
      </trkpt>
      <trkpt lat="42.6823202093139" lon="-2.46230344523177">
        <time>2019-09-24T09:58:31Z</time>
      </trkpt>
      <trkpt lat="42.6823441336795" lon="-2.46231417570068">
        <time>2019-09-24T09:58:31Z</time>
      </trkpt>
      <trkpt lat="42.6823713045017" lon="-2.4623280019971">
        <time>2019-09-24T09:58:31Z</time>
      </trkpt>
      <trkpt lat="42.6824007022857" lon="-2.46234401896323">
        <time>2019-09-24T09:58:31Z</time>
      </trkpt>
      <trkpt lat="42.6824312574412" lon="-2.46236136961483">
        <time>2019-09-24T09:58:31Z</time>
      </trkpt>
      <trkpt lat="42.6824621431662" lon="-2.46237999799199">
        <time>2019-09-24T09:58:31Z</time>
      </trkpt>
      <trkpt lat="42.682492866611" lon="-2.46240023743692">
        <time>2019-09-24T09:58:31Z</time>
      </trkpt>
      <trkpt lat="42.6825232274247" lon="-2.4624220197681">
        <time>2019-09-24T09:58:31Z</time>
      </trkpt>
      <trkpt lat="42.6825532415547" lon="-2.46244499018082">
        <time>2019-09-24T09:58:31Z</time>
      </trkpt>
      <trkpt lat="42.6825827744362" lon="-2.46246889065481">
        <time>2019-09-24T09:58:31Z</time>
      </trkpt>
      <trkpt lat="42.682611682095" lon="-2.46249387077901">
        <time>2019-09-24T09:58:31Z</time>
      </trkpt>
      <trkpt lat="42.6826400374941" lon="-2.46251992992538">
        <time>2019-09-24T09:58:31Z</time>
      </trkpt>
      <trkpt lat="42.6826676566234" lon="-2.4625467286518">
        <time>2019-09-24T09:58:31Z</time>
      </trkpt>
      <trkpt lat="42.6826939528998" lon="-2.46257365986637">
        <time>2019-09-24T09:58:31Z</time>
      </trkpt>
      <trkpt lat="42.6827183279706" lon="-2.46260002108846">
        <time>2019-09-24T09:58:31Z</time>
      </trkpt>
      <trkpt lat="42.682740457507" lon="-2.46262559685095">
        <time>2019-09-24T09:58:31Z</time>
      </trkpt>
      <trkpt lat="42.6827605503964" lon="-2.46265093440741">
        <time>2019-09-24T09:58:31Z</time>
      </trkpt>
      <trkpt lat="42.682779358528" lon="-2.46267701626196">
        <time>2019-09-24T09:58:31Z</time>
      </trkpt>
      <trkpt lat="42.6827977314957" lon="-2.46270419829056">
        <time>2019-09-24T09:58:31Z</time>
      </trkpt>
      <trkpt lat="42.6828162619999" lon="-2.46273251460605">
        <time>2019-09-24T09:58:31Z</time>
      </trkpt>
      <trkpt lat="42.6828358018807" lon="-2.4627628002147">
        <time>2019-09-24T09:58:31Z</time>
      </trkpt>
      <trkpt lat="42.6828574301066" lon="-2.46279657193368">
        <time>2019-09-24T09:58:31Z</time>
      </trkpt>
      <trkpt lat="42.6828817433009" lon="-2.46283470107782">
        <time>2019-09-24T09:58:31Z</time>
      </trkpt>
      <trkpt lat="42.6829082821809" lon="-2.46287690003204">
        <time>2019-09-24T09:58:31Z</time>
      </trkpt>
      <trkpt lat="42.6829358323733" lon="-2.46292175205285">
        <time>2019-09-24T09:58:31Z</time>
      </trkpt>
      <trkpt lat="42.6829629642005" lon="-2.46296753361288">
        <time>2019-09-24T09:58:31Z</time>
      </trkpt>
      <trkpt lat="42.6829885627428" lon="-2.46301257303231">
        <time>2019-09-24T09:58:31Z</time>
      </trkpt>
      <trkpt lat="42.6830126482912" lon="-2.46305609940327">
        <time>2019-09-24T09:58:31Z</time>
      </trkpt>
      <trkpt lat="42.6830360610227" lon="-2.46309806967961">
        <time>2019-09-24T09:58:31Z</time>
      </trkpt>
      <trkpt lat="42.6830594449174" lon="-2.46313764790474">
        <time>2019-09-24T09:58:31Z</time>
      </trkpt>
      <trkpt lat="42.6830830161761" lon="-2.46317318333047">
        <time>2019-09-24T09:58:31Z</time>
      </trkpt>
      <trkpt lat="42.6831069043269" lon="-2.46320305323509">
        <time>2019-09-24T09:58:31Z</time>
      </trkpt>
      <trkpt lat="42.6831316451137" lon="-2.46322668006907">
        <time>2019-09-24T09:58:31Z</time>
      </trkpt>
      <trkpt lat="42.6831576172378" lon="-2.46324406909238">
        <time>2019-09-24T09:58:31Z</time>
      </trkpt>
      <trkpt lat="42.6831844589254" lon="-2.46325479882766">
        <time>2019-09-24T09:58:31Z</time>
      </trkpt>
      <trkpt lat="42.6832114184099" lon="-2.46325818003224">
        <time>2019-09-24T09:58:31Z</time>
      </trkpt>
      <trkpt lat="42.6832374002589" lon="-2.46325455122005">
        <time>2019-09-24T09:58:31Z</time>
      </trkpt>
      <trkpt lat="42.6832613057206" lon="-2.46324595950456">
        <time>2019-09-24T09:58:31Z</time>
      </trkpt>
      <trkpt lat="42.6832823500405" lon="-2.46323595325249">
        <time>2019-09-24T09:58:31Z</time>
      </trkpt>
      <trkpt lat="42.6833313982654" lon="-2.46324092623556">
        <time>2019-09-24T09:58:31Z</time>
      </trkpt>
      <trkpt lat="42.6833385725726" lon="-2.46324219451439">
        <time>2019-09-24T09:58:31Z</time>
      </trkpt>
      <trkpt lat="42.6833531377384" lon="-2.46324476672267">
        <time>2019-09-24T09:58:31Z</time>
      </trkpt>
      <trkpt lat="42.6833742748625" lon="-2.46325081035101">
        <time>2019-09-24T09:58:31Z</time>
      </trkpt>
      <trkpt lat="42.6833982297815" lon="-2.46326244312922">
        <time>2019-09-24T09:58:31Z</time>
      </trkpt>
      <trkpt lat="42.6834211203778" lon="-2.46327944440583">
        <time>2019-09-24T09:58:31Z</time>
      </trkpt>
      <trkpt lat="42.6834431208796" lon="-2.4632968438375">
        <time>2019-09-24T09:58:31Z</time>
      </trkpt>
      <trkpt lat="42.6834646494018" lon="-2.4633112445475">
        <time>2019-09-24T09:58:31Z</time>
      </trkpt>
      <trkpt lat="42.6834848312408" lon="-2.46332498672607">
        <time>2019-09-24T09:58:31Z</time>
      </trkpt>
      <trkpt lat="42.6835031617512" lon="-2.4633393774611">
        <time>2019-09-24T09:58:31Z</time>
      </trkpt>
      <trkpt lat="42.6835200787325" lon="-2.46335387926754">
        <time>2019-09-24T09:58:31Z</time>
      </trkpt>
      <trkpt lat="42.6835364417379" lon="-2.46336721439894">
        <time>2019-09-24T09:58:31Z</time>
      </trkpt>
      <trkpt lat="42.6835531365152" lon="-2.46337859426588">
        <time>2019-09-24T09:58:31Z</time>
      </trkpt>
      <trkpt lat="42.6835704997972" lon="-2.46338819671738">
        <time>2019-09-24T09:58:31Z</time>
      </trkpt>
      <trkpt lat="42.6835883681145" lon="-2.46339818701745">
        <time>2019-09-24T09:58:31Z</time>
      </trkpt>
      <trkpt lat="42.6836069263802" lon="-2.46340936671017">
        <time>2019-09-24T09:58:31Z</time>
      </trkpt>
      <trkpt lat="42.6836261725976" lon="-2.46342130952182">
        <time>2019-09-24T09:58:31Z</time>
      </trkpt>
      <trkpt lat="42.6836455536474" lon="-2.4634330312138">
        <time>2019-09-24T09:58:31Z</time>
      </trkpt>
      <trkpt lat="42.6836648042647" lon="-2.46344376503633">
        <time>2019-09-24T09:58:31Z</time>
      </trkpt>
      <trkpt lat="42.6836840121104" lon="-2.4634534249757">
        <time>2019-09-24T09:58:31Z</time>
      </trkpt>
      <trkpt lat="42.6837030412157" lon="-2.46346306429147">
        <time>2019-09-24T09:58:31Z</time>
      </trkpt>
      <trkpt lat="42.6837218434628" lon="-2.46347422828337">
        <time>2019-09-24T09:58:31Z</time>
      </trkpt>
      <trkpt lat="42.683741028952" lon="-2.46348475636593">
        <time>2019-09-24T09:58:31Z</time>
      </trkpt>
      <trkpt lat="42.6837605643395" lon="-2.46349290102322">
        <time>2019-09-24T09:58:31Z</time>
      </trkpt>
      <trkpt lat="42.6837801384459" lon="-2.46349803060552">
        <time>2019-09-24T09:58:31Z</time>
      </trkpt>
      <trkpt lat="42.6837992514938" lon="-2.46350061151163">
        <time>2019-09-24T09:58:31Z</time>
      </trkpt>
      <trkpt lat="42.6838174594719" lon="-2.46350415339788">
        <time>2019-09-24T09:58:31Z</time>
      </trkpt>
      <trkpt lat="42.6838349208742" lon="-2.46351187597727">
        <time>2019-09-24T09:58:31Z</time>
      </trkpt>
      <trkpt lat="42.6838521322136" lon="-2.46352395914086">
        <time>2019-09-24T09:58:31Z</time>
      </trkpt>
      <trkpt lat="42.6838694782103" lon="-2.46353766448034">
        <time>2019-09-24T09:58:31Z</time>
      </trkpt>
      <trkpt lat="42.6838868400369" lon="-2.46355098943686">
        <time>2019-09-24T09:58:31Z</time>
      </trkpt>
      <trkpt lat="42.6839042914719" lon="-2.46356410730356">
        <time>2019-09-24T09:58:31Z</time>
      </trkpt>
      <trkpt lat="42.683922355554" lon="-2.46357748932591">
        <time>2019-09-24T09:58:31Z</time>
      </trkpt>
      <trkpt lat="42.6839408221276" lon="-2.46359192851475">
        <time>2019-09-24T09:58:31Z</time>
      </trkpt>
      <trkpt lat="42.6839591654732" lon="-2.46360718725766">
        <time>2019-09-24T09:58:31Z</time>
      </trkpt>
      <trkpt lat="42.6839763311531" lon="-2.46362295575578">
        <time>2019-09-24T09:58:31Z</time>
      </trkpt>
      <trkpt lat="42.68400695581" lon="-2.46364149026212">
        <time>2019-09-24T09:58:31Z</time>
      </trkpt>
      <trkpt lat="42.6840151144293" lon="-2.4636471699611">
        <time>2019-09-24T09:58:31Z</time>
      </trkpt>
      <trkpt lat="42.6840250340132" lon="-2.46365197851621">
        <time>2019-09-24T09:58:31Z</time>
      </trkpt>
      <trkpt lat="42.6840347437329" lon="-2.46366006111924">
        <time>2019-09-24T09:58:31Z</time>
      </trkpt>
      <trkpt lat="42.6840457664443" lon="-2.46367154961543">
        <time>2019-09-24T09:58:31Z</time>
      </trkpt>
      <trkpt lat="42.6840559941602" lon="-2.46368278917532">
        <time>2019-09-24T09:58:31Z</time>
      </trkpt>
      <trkpt lat="42.6840648991438" lon="-2.46369391734087">
        <time>2019-09-24T09:58:31Z</time>
      </trkpt>
      <trkpt lat="42.6840717286563" lon="-2.46370618707224">
        <time>2019-09-24T09:58:31Z</time>
      </trkpt>
      <trkpt lat="42.6840759119691" lon="-2.46371861427103">
        <time>2019-09-24T09:58:31Z</time>
      </trkpt>
      <trkpt lat="42.684100568826" lon="-2.4637649196152">
        <time>2019-09-24T09:58:31Z</time>
      </trkpt>
      <trkpt lat="42.6841044362828" lon="-2.46378512517163">
        <time>2019-09-24T09:58:31Z</time>
      </trkpt>
      <trkpt lat="42.684110491532" lon="-2.46381071734919">
        <time>2019-09-24T09:58:31Z</time>
      </trkpt>
      <trkpt lat="42.6841195912193" lon="-2.46384248510769">
        <time>2019-09-24T09:58:31Z</time>
      </trkpt>
      <trkpt lat="42.6841316451653" lon="-2.46387997735617">
        <time>2019-09-24T09:58:31Z</time>
      </trkpt>
      <trkpt lat="42.684145180765" lon="-2.4639206285242">
        <time>2019-09-24T09:58:31Z</time>
      </trkpt>
      <trkpt lat="42.6841588710216" lon="-2.46396314726218">
        <time>2019-09-24T09:58:31Z</time>
      </trkpt>
      <trkpt lat="42.6841720642818" lon="-2.4640075374672">
        <time>2019-09-24T09:58:31Z</time>
      </trkpt>
      <trkpt lat="42.6841852758705" lon="-2.4640539669344">
        <time>2019-09-24T09:58:31Z</time>
      </trkpt>
      <trkpt lat="42.6841993786586" lon="-2.46410212123109">
        <time>2019-09-24T09:58:31Z</time>
      </trkpt>
      <trkpt lat="42.684214627952" lon="-2.46415279107808">
        <time>2019-09-24T09:58:31Z</time>
      </trkpt>
      <trkpt lat="42.6842307927977" lon="-2.46420662814009">
        <time>2019-09-24T09:58:31Z</time>
      </trkpt>
      <trkpt lat="42.6842473160724" lon="-2.46426232933">
        <time>2019-09-24T09:58:31Z</time>
      </trkpt>
      <trkpt lat="42.6842636372959" lon="-2.46431868025599">
        <time>2019-09-24T09:58:31Z</time>
      </trkpt>
      <trkpt lat="42.6842795799393" lon="-2.46437532605006">
        <time>2019-09-24T09:58:31Z</time>
      </trkpt>
      <trkpt lat="42.6842951111919" lon="-2.4644325142454">
        <time>2019-09-24T09:58:31Z</time>
      </trkpt>
      <trkpt lat="42.6843102425276" lon="-2.46449054656106">
        <time>2019-09-24T09:58:31Z</time>
      </trkpt>
      <trkpt lat="42.6843248368243" lon="-2.46454969359367">
        <time>2019-09-24T09:58:31Z</time>
      </trkpt>
      <trkpt lat="42.6843386066421" lon="-2.46460955709077">
        <time>2019-09-24T09:58:31Z</time>
      </trkpt>
      <trkpt lat="42.6843510383363" lon="-2.46466817537645">
        <time>2019-09-24T09:58:31Z</time>
      </trkpt>
      <trkpt lat="42.6843615473767" lon="-2.46472214649463">
        <time>2019-09-24T09:58:31Z</time>
      </trkpt>
      <trkpt lat="42.6843700964425" lon="-2.4647707511682">
        <time>2019-09-24T09:58:31Z</time>
      </trkpt>
      <trkpt lat="42.6843770442728" lon="-2.46481618430159">
        <time>2019-09-24T09:58:31Z</time>
      </trkpt>
      <trkpt lat="42.6843829344652" lon="-2.46486062557415">
        <time>2019-09-24T09:58:31Z</time>
      </trkpt>
      <trkpt lat="42.6843883202386" lon="-2.46490508311953">
        <time>2019-09-24T09:58:31Z</time>
      </trkpt>
      <trkpt lat="42.6843938156638" lon="-2.46494985689727">
        <time>2019-09-24T09:58:31Z</time>
      </trkpt>
      <trkpt lat="42.6843999434389" lon="-2.46499507713357">
        <time>2019-09-24T09:58:31Z</time>
      </trkpt>
      <trkpt lat="42.6844070284138" lon="-2.46504080243018">
        <time>2019-09-24T09:58:31Z</time>
      </trkpt>
      <trkpt lat="42.6844151939275" lon="-2.46508677424762">
        <time>2019-09-24T09:58:31Z</time>
      </trkpt>
      <trkpt lat="42.6844243856716" lon="-2.46513240817353">
        <time>2019-09-24T09:58:31Z</time>
      </trkpt>
      <trkpt lat="42.6844346101596" lon="-2.46517748247927">
        <time>2019-09-24T09:58:31Z</time>
      </trkpt>
      <trkpt lat="42.6844461287855" lon="-2.46522193694874">
        <time>2019-09-24T09:58:31Z</time>
      </trkpt>
      <trkpt lat="42.6844593269437" lon="-2.46526559435016">
        <time>2019-09-24T09:58:31Z</time>
      </trkpt>
      <trkpt lat="42.6844746101334" lon="-2.46530827216462">
        <time>2019-09-24T09:58:31Z</time>
      </trkpt>
      <trkpt lat="42.6844920759472" lon="-2.46534958589051">
        <time>2019-09-24T09:58:31Z</time>
      </trkpt>
      <trkpt lat="42.6845116751274" lon="-2.46538895448224">
        <time>2019-09-24T09:58:31Z</time>
      </trkpt>
      <trkpt lat="42.684533245443" lon="-2.46542612014311">
        <time>2019-09-24T09:58:31Z</time>
      </trkpt>
      <trkpt lat="42.6845564554118" lon="-2.46546148984682">
        <time>2019-09-24T09:58:31Z</time>
      </trkpt>
      <trkpt lat="42.6845807407565" lon="-2.46549572834118">
        <time>2019-09-24T09:58:31Z</time>
      </trkpt>
      <trkpt lat="42.6846054646895" lon="-2.46552932877027">
        <time>2019-09-24T09:58:31Z</time>
      </trkpt>
      <trkpt lat="42.6846299005787" lon="-2.4655629419256">
        <time>2019-09-24T09:58:31Z</time>
      </trkpt>
      <trkpt lat="42.6846532100623" lon="-2.46559834839636">
        <time>2019-09-24T09:58:31Z</time>
      </trkpt>
      <trkpt lat="42.6846746163958" lon="-2.46563705370748">
        <time>2019-09-24T09:58:31Z</time>
      </trkpt>
      <trkpt lat="42.6846936083084" lon="-2.46567949024428">
        <time>2019-09-24T09:58:31Z</time>
      </trkpt>
      <trkpt lat="42.6847105533814" lon="-2.46572516887436">
        <time>2019-09-24T09:58:31Z</time>
      </trkpt>
      <trkpt lat="42.6847260746809" lon="-2.46577254275801">
        <time>2019-09-24T09:58:31Z</time>
      </trkpt>
      <trkpt lat="42.6847408623385" lon="-2.46581906864428">
        <time>2019-09-24T09:58:31Z</time>
      </trkpt>
      <trkpt lat="42.6847559642944" lon="-2.46586339385739">
        <time>2019-09-24T09:58:31Z</time>
      </trkpt>
      <trkpt lat="42.6847729107386" lon="-2.46590560419288">
        <time>2019-09-24T09:58:31Z</time>
      </trkpt>
      <trkpt lat="42.6847963511799" lon="-2.46595563355879">
        <time>2019-09-24T09:58:31Z</time>
      </trkpt>
      <trkpt lat="42.6848197678533" lon="-2.46599867865799">
        <time>2019-09-24T09:58:31Z</time>
      </trkpt>
      <trkpt lat="42.6848446289188" lon="-2.46604229971719">
        <time>2019-09-24T09:58:31Z</time>
      </trkpt>
      <trkpt lat="42.6848696993884" lon="-2.4660846963874">
        <time>2019-09-24T09:58:31Z</time>
      </trkpt>
      <trkpt lat="42.6848886045073" lon="-2.46611826175971">
        <time>2019-09-24T09:58:31Z</time>
      </trkpt>
      <trkpt lat="42.6849192460224" lon="-2.46615967123226">
        <time>2019-09-24T09:58:31Z</time>
      </trkpt>
      <trkpt lat="42.6849422149878" lon="-2.46618791573109">
        <time>2019-09-24T09:58:31Z</time>
      </trkpt>
      <trkpt lat="42.6849653678758" lon="-2.46621702492106">
        <time>2019-09-24T09:58:31Z</time>
      </trkpt>
      <trkpt lat="42.6849854323962" lon="-2.46623617487586">
        <time>2019-09-24T09:58:31Z</time>
      </trkpt>
      <trkpt lat="42.6850134414311" lon="-2.4662677338495">
        <time>2019-09-24T09:58:31Z</time>
      </trkpt>
      <trkpt lat="42.685033388102" lon="-2.46629075396068">
        <time>2019-09-24T09:58:31Z</time>
      </trkpt>
      <trkpt lat="42.6850499009039" lon="-2.46630931365964">
        <time>2019-09-24T09:58:31Z</time>
      </trkpt>
      <trkpt lat="42.6850553279297" lon="-2.466330067349">
        <time>2019-09-24T09:58:31Z</time>
      </trkpt>
      <trkpt lat="42.6850571176914" lon="-2.46633321348955">
        <time>2019-09-24T09:58:31Z</time>
      </trkpt>
      <trkpt lat="42.685061948558" lon="-2.46633806609785">
        <time>2019-09-24T09:58:31Z</time>
      </trkpt>
      <trkpt lat="42.6850694483724" lon="-2.4663435932979">
        <time>2019-09-24T09:58:31Z</time>
      </trkpt>
      <trkpt lat="42.6850806388857" lon="-2.46635038146518">
        <time>2019-09-24T09:58:31Z</time>
      </trkpt>
      <trkpt lat="42.6850945883266" lon="-2.46635636504003">
        <time>2019-09-24T09:58:31Z</time>
      </trkpt>
      <trkpt lat="42.685112345082" lon="-2.46637136047209">
        <time>2019-09-24T09:58:31Z</time>
      </trkpt>
      <trkpt lat="42.6851318504944" lon="-2.46638094736847">
        <time>2019-09-24T09:58:31Z</time>
      </trkpt>
      <trkpt lat="42.6851531912196" lon="-2.46639211634943">
        <time>2019-09-24T09:58:31Z</time>
      </trkpt>
      <trkpt lat="42.6851750770375" lon="-2.46640606357956">
        <time>2019-09-24T09:58:31Z</time>
      </trkpt>
      <trkpt lat="42.6851965173811" lon="-2.46641917396128">
        <time>2019-09-24T09:58:31Z</time>
      </trkpt>
      <trkpt lat="42.6852313610952" lon="-2.46646607783936">
        <time>2019-09-24T09:58:31Z</time>
      </trkpt>
      <trkpt lat="42.685255268939" lon="-2.46648307208317">
        <time>2019-09-24T09:58:31Z</time>
      </trkpt>
      <trkpt lat="42.6852772994121" lon="-2.46649728755409">
        <time>2019-09-24T09:58:31Z</time>
      </trkpt>
      <trkpt lat="42.6852976983808" lon="-2.46651316423011">
        <time>2019-09-24T09:58:31Z</time>
      </trkpt>
      <trkpt lat="42.685322766046" lon="-2.46652581563455">
        <time>2019-09-24T09:58:31Z</time>
      </trkpt>
      <trkpt lat="42.6853434231446" lon="-2.46654309351632">
        <time>2019-09-24T09:58:31Z</time>
      </trkpt>
      <trkpt lat="42.6853688621902" lon="-2.46656201525887">
        <time>2019-09-24T09:58:31Z</time>
      </trkpt>
      <trkpt lat="42.6853977262906" lon="-2.46658756148001">
        <time>2019-09-24T09:58:31Z</time>
      </trkpt>
      <trkpt lat="42.6854289057231" lon="-2.46661889589623">
        <time>2019-09-24T09:58:31Z</time>
      </trkpt>
      <trkpt lat="42.6854650718107" lon="-2.46665774522845">
        <time>2019-09-24T09:58:31Z</time>
      </trkpt>
      <trkpt lat="42.6855093874842" lon="-2.46670226127422">
        <time>2019-09-24T09:58:31Z</time>
      </trkpt>
      <trkpt lat="42.6855576369224" lon="-2.46674809939653">
        <time>2019-09-24T09:58:31Z</time>
      </trkpt>
      <trkpt lat="42.685597683205" lon="-2.46679433683782">
        <time>2019-09-24T09:58:31Z</time>
      </trkpt>
      <trkpt lat="42.6856361097237" lon="-2.46683908588397">
        <time>2019-09-24T09:58:31Z</time>
      </trkpt>
      <trkpt lat="42.6856706800418" lon="-2.46688107479245">
        <time>2019-09-24T09:58:31Z</time>
      </trkpt>
      <trkpt lat="42.685699220783" lon="-2.46691473921933">
        <time>2019-09-24T09:58:31Z</time>
      </trkpt>
      <trkpt lat="42.6857333231138" lon="-2.46694916441432">
        <time>2019-09-24T09:58:31Z</time>
      </trkpt>
      <trkpt lat="42.6857670376777" lon="-2.46698163706464">
        <time>2019-09-24T09:58:31Z</time>
      </trkpt>
      <trkpt lat="42.6858046186802" lon="-2.46701475026922">
        <time>2019-09-24T09:58:31Z</time>
      </trkpt>
      <trkpt lat="42.68584312115" lon="-2.46704285078789">
        <time>2019-09-24T09:58:31Z</time>
      </trkpt>
      <trkpt lat="42.6858749832924" lon="-2.46706817399564">
        <time>2019-09-24T09:58:31Z</time>
      </trkpt>
      <trkpt lat="42.6859082197734" lon="-2.46709280509692">
        <time>2019-09-24T09:58:31Z</time>
      </trkpt>
      <trkpt lat="42.6859351640166" lon="-2.46711403348687">
        <time>2019-09-24T09:58:31Z</time>
      </trkpt>
      <trkpt lat="42.6859656567247" lon="-2.46713542767516">
        <time>2019-09-24T09:58:31Z</time>
      </trkpt>
      <trkpt lat="42.6859951955729" lon="-2.467145135538">
        <time>2019-09-24T09:58:31Z</time>
      </trkpt>
      <trkpt lat="42.6860218857527" lon="-2.4671544772522">
        <time>2019-09-24T09:58:31Z</time>
      </trkpt>
      <trkpt lat="42.6860465002841" lon="-2.46715897849342">
        <time>2019-09-24T09:58:31Z</time>
      </trkpt>
      <trkpt lat="42.6860688605157" lon="-2.46716080131639">
        <time>2019-09-24T09:58:31Z</time>
      </trkpt>
      <trkpt lat="42.6860891485505" lon="-2.46716231273604">
        <time>2019-09-24T09:58:31Z</time>
      </trkpt>
      <trkpt lat="42.6861090968797" lon="-2.46716841585309">
        <time>2019-09-24T09:58:31Z</time>
      </trkpt>
      <trkpt lat="42.686129623505" lon="-2.46718092402223">
        <time>2019-09-24T09:58:31Z</time>
      </trkpt>
      <trkpt lat="42.6861518762177" lon="-2.46719831148626">
        <time>2019-09-24T09:58:31Z</time>
      </trkpt>
      <trkpt lat="42.6861762281521" lon="-2.4672199287782">
        <time>2019-09-24T09:58:31Z</time>
      </trkpt>
      <trkpt lat="42.6862037909286" lon="-2.46724052961625">
        <time>2019-09-24T09:58:31Z</time>
      </trkpt>
      <trkpt lat="42.6862329686636" lon="-2.46727160220123">
        <time>2019-09-24T09:58:31Z</time>
      </trkpt>
      <trkpt lat="42.6862687979022" lon="-2.46729406109193">
        <time>2019-09-24T09:58:31Z</time>
      </trkpt>
      <trkpt lat="42.6863246024186" lon="-2.46730894009266">
        <time>2019-09-24T09:58:31Z</time>
      </trkpt>
      <trkpt lat="42.6863628710336" lon="-2.4673311343502">
        <time>2019-09-24T09:58:31Z</time>
      </trkpt>
      <trkpt lat="42.6864061224344" lon="-2.4673540670759">
        <time>2019-09-24T09:58:31Z</time>
      </trkpt>
      <trkpt lat="42.6864419886263" lon="-2.46738068997173">
        <time>2019-09-24T09:58:31Z</time>
      </trkpt>
      <trkpt lat="42.6864727571055" lon="-2.46740891673797">
        <time>2019-09-24T09:58:31Z</time>
      </trkpt>
      <trkpt lat="42.6865016992295" lon="-2.46743775767174">
        <time>2019-09-24T09:58:31Z</time>
      </trkpt>
      <trkpt lat="42.6865276462616" lon="-2.46746721081553">
        <time>2019-09-24T09:58:31Z</time>
      </trkpt>
      <trkpt lat="42.6865503436723" lon="-2.4674990841986">
        <time>2019-09-24T09:58:31Z</time>
      </trkpt>
      <trkpt lat="42.6865709939068" lon="-2.46753413661895">
        <time>2019-09-24T09:58:31Z</time>
      </trkpt>
      <trkpt lat="42.6865908669189" lon="-2.46757059911982">
        <time>2019-09-24T09:58:31Z</time>
      </trkpt>
      <trkpt lat="42.6866106960005" lon="-2.46760708589247">
        <time>2019-09-24T09:58:31Z</time>
      </trkpt>
      <trkpt lat="42.6866305703636" lon="-2.46764194890213">
        <time>2019-09-24T09:58:31Z</time>
      </trkpt>
      <trkpt lat="42.686650450371" lon="-2.46767396752509">
        <time>2019-09-24T09:58:31Z</time>
      </trkpt>
      <trkpt lat="42.6866701530117" lon="-2.46770274258646">
        <time>2019-09-24T09:58:31Z</time>
      </trkpt>
      <trkpt lat="42.6866894145233" lon="-2.46772755330692">
        <time>2019-09-24T09:58:31Z</time>
      </trkpt>
      <trkpt lat="42.6867079056804" lon="-2.46774766923321">
        <time>2019-09-24T09:58:31Z</time>
      </trkpt>
      <trkpt lat="42.6867256081115" lon="-2.46776265567739">
        <time>2019-09-24T09:58:31Z</time>
      </trkpt>
      <trkpt lat="42.6867433468752" lon="-2.46777381863877">
        <time>2019-09-24T09:58:31Z</time>
      </trkpt>
      <trkpt lat="42.6867630671818" lon="-2.46778311108178">
        <time>2019-09-24T09:58:31Z</time>
      </trkpt>
      <trkpt lat="42.68678684069" lon="-2.46779262472598">
        <time>2019-09-24T09:58:31Z</time>
      </trkpt>
      <trkpt lat="42.6868135997827" lon="-2.46780327247114">
        <time>2019-09-24T09:58:31Z</time>
      </trkpt>
      <trkpt lat="42.6868420758345" lon="-2.46781494407388">
        <time>2019-09-24T09:58:31Z</time>
      </trkpt>
      <trkpt lat="42.6868716198694" lon="-2.46782794861102">
        <time>2019-09-24T09:58:31Z</time>
      </trkpt>
      <trkpt lat="42.6869289861954" lon="-2.46785948893043">
        <time>2019-09-24T09:58:31Z</time>
      </trkpt>
      <trkpt lat="42.6869567286392" lon="-2.46788006488999">
        <time>2019-09-24T09:58:31Z</time>
      </trkpt>
      <trkpt lat="42.6869845237322" lon="-2.46790222631155">
        <time>2019-09-24T09:58:31Z</time>
      </trkpt>
      <trkpt lat="42.6870120382464" lon="-2.46792411048385">
        <time>2019-09-24T09:58:31Z</time>
      </trkpt>
      <trkpt lat="42.6870393326904" lon="-2.46794520190058">
        <time>2019-09-24T09:58:31Z</time>
      </trkpt>
      <trkpt lat="42.6870668931264" lon="-2.46796532759228">
        <time>2019-09-24T09:58:31Z</time>
      </trkpt>
      <trkpt lat="42.6870938541071" lon="-2.46798450687853">
        <time>2019-09-24T09:58:31Z</time>
      </trkpt>
      <trkpt lat="42.6871199125996" lon="-2.46800331531195">
        <time>2019-09-24T09:58:31Z</time>
      </trkpt>
      <trkpt lat="42.6871456157897" lon="-2.46802282254057">
        <time>2019-09-24T09:58:31Z</time>
      </trkpt>
      <trkpt lat="42.6871711700222" lon="-2.46804357590042">
        <time>2019-09-24T09:58:31Z</time>
      </trkpt>
      <trkpt lat="42.6871966115006" lon="-2.46806524426223">
        <time>2019-09-24T09:58:31Z</time>
      </trkpt>
      <trkpt lat="42.6872223273151" lon="-2.46808747303991">
        <time>2019-09-24T09:58:31Z</time>
      </trkpt>
      <trkpt lat="42.6872495656852" lon="-2.46811031297705">
        <time>2019-09-24T09:58:31Z</time>
      </trkpt>
      <trkpt lat="42.6872819142137" lon="-2.46813558539866">
        <time>2019-09-24T09:58:31Z</time>
      </trkpt>
      <trkpt lat="42.687322984849" lon="-2.46816602034167">
        <time>2019-09-24T09:58:31Z</time>
      </trkpt>
      <trkpt lat="42.687369583236" lon="-2.46819778774643">
        <time>2019-09-24T09:58:31Z</time>
      </trkpt>
      <trkpt lat="42.6874105485303" lon="-2.46822287764009">
        <time>2019-09-24T09:58:31Z</time>
      </trkpt>
      <trkpt lat="42.6874720108948" lon="-2.46825603266228">
        <time>2019-09-24T09:58:31Z</time>
      </trkpt>
      <trkpt lat="42.6874979760256" lon="-2.46827208298226">
        <time>2019-09-24T09:58:31Z</time>
      </trkpt>
      <trkpt lat="42.6875209467007" lon="-2.46829105099743">
        <time>2019-09-24T09:58:31Z</time>
      </trkpt>
      <trkpt lat="42.6875407261012" lon="-2.46831308674555">
        <time>2019-09-24T09:58:31Z</time>
      </trkpt>
      <trkpt lat="42.6875591088114" lon="-2.46833696588374">
        <time>2019-09-24T09:58:31Z</time>
      </trkpt>
      <trkpt lat="42.6875785825892" lon="-2.46836091929228">
        <time>2019-09-24T09:58:31Z</time>
      </trkpt>
      <trkpt lat="42.6876020278877" lon="-2.468383217137">
        <time>2019-09-24T09:58:31Z</time>
      </trkpt>
      <trkpt lat="42.6876293803361" lon="-2.46840327164774">
        <time>2019-09-24T09:58:31Z</time>
      </trkpt>
      <trkpt lat="42.6876610942393" lon="-2.46842003020524">
        <time>2019-09-24T09:58:31Z</time>
      </trkpt>
      <trkpt lat="42.6876853191941" lon="-2.46843737784687">
        <time>2019-09-24T09:58:31Z</time>
      </trkpt>
      <trkpt lat="42.6877031661005" lon="-2.46845451043646">
        <time>2019-09-24T09:58:31Z</time>
      </trkpt>
      <trkpt lat="42.6877206607173" lon="-2.46847136466733">
        <time>2019-09-24T09:58:31Z</time>
      </trkpt>
      <trkpt lat="42.6877404166437" lon="-2.46848834799205">
        <time>2019-09-24T09:58:31Z</time>
      </trkpt>
      <trkpt lat="42.6877629416513" lon="-2.46850644173792">
        <time>2019-09-24T09:58:31Z</time>
      </trkpt>
      <trkpt lat="42.6877881699429" lon="-2.46852664917595">
        <time>2019-09-24T09:58:31Z</time>
      </trkpt>
      <trkpt lat="42.687815323679" lon="-2.46854862053639">
        <time>2019-09-24T09:58:31Z</time>
      </trkpt>
      <trkpt lat="42.6878433536578" lon="-2.4685710022428">
        <time>2019-09-24T09:58:31Z</time>
      </trkpt>
      <trkpt lat="42.6878713249983" lon="-2.46859240563499">
        <time>2019-09-24T09:58:31Z</time>
      </trkpt>
      <trkpt lat="42.6878983669074" lon="-2.46861142615529">
        <time>2019-09-24T09:58:31Z</time>
      </trkpt>
      <trkpt lat="42.6879238163993" lon="-2.46862697977108">
        <time>2019-09-24T09:58:31Z</time>
      </trkpt>
      <trkpt lat="42.6879479827046" lon="-2.46863955496468">
        <time>2019-09-24T09:58:31Z</time>
      </trkpt>
      <trkpt lat="42.6879726913274" lon="-2.46865079542172">
        <time>2019-09-24T09:58:31Z</time>
      </trkpt>
      <trkpt lat="42.687999177286" lon="-2.46866278812275">
        <time>2019-09-24T09:58:31Z</time>
      </trkpt>
      <trkpt lat="42.6880275531303" lon="-2.46867430259665">
        <time>2019-09-24T09:58:31Z</time>
      </trkpt>
      <trkpt lat="42.6880563596321" lon="-2.46868753234439">
        <time>2019-09-24T09:58:31Z</time>
      </trkpt>
      <trkpt lat="42.6880840360567" lon="-2.46869960190317">
        <time>2019-09-24T09:58:31Z</time>
      </trkpt>
      <trkpt lat="42.6881104040592" lon="-2.46871138931056">
        <time>2019-09-24T09:58:31Z</time>
      </trkpt>
      <trkpt lat="42.6881374050098" lon="-2.46872537968928">
        <time>2019-09-24T09:58:31Z</time>
      </trkpt>
      <trkpt lat="42.688165263052" lon="-2.46874189002285">
        <time>2019-09-24T09:58:31Z</time>
      </trkpt>
      <trkpt lat="42.6881941901278" lon="-2.46876159039567">
        <time>2019-09-24T09:58:31Z</time>
      </trkpt>
      <trkpt lat="42.688224095541" lon="-2.46878445600641">
        <time>2019-09-24T09:58:31Z</time>
      </trkpt>
      <trkpt lat="42.6882548649186" lon="-2.46880942543554">
        <time>2019-09-24T09:58:31Z</time>
      </trkpt>
      <trkpt lat="42.6882844956792" lon="-2.46883329273484">
        <time>2019-09-24T09:58:31Z</time>
      </trkpt>
      <trkpt lat="42.6883148406593" lon="-2.46885572834396">
        <time>2019-09-24T09:58:31Z</time>
      </trkpt>
      <trkpt lat="42.6883430726605" lon="-2.4688731257625">
        <time>2019-09-24T09:58:31Z</time>
      </trkpt>
      <trkpt lat="42.688368998352" lon="-2.46888475846583">
        <time>2019-09-24T09:58:31Z</time>
      </trkpt>
      <trkpt lat="42.6883955276772" lon="-2.46889227114841">
        <time>2019-09-24T09:58:31Z</time>
      </trkpt>
      <trkpt lat="42.6884231722552" lon="-2.46889557588775">
        <time>2019-09-24T09:58:31Z</time>
      </trkpt>
      <trkpt lat="42.6884518878564" lon="-2.46889517270845">
        <time>2019-09-24T09:58:31Z</time>
      </trkpt>
      <trkpt lat="42.6884813855396" lon="-2.46889223560917">
        <time>2019-09-24T09:58:31Z</time>
      </trkpt>
      <trkpt lat="42.6885113297444" lon="-2.46888846592633">
        <time>2019-09-24T09:58:31Z</time>
      </trkpt>
      <trkpt lat="42.6885414564265" lon="-2.46888552346315">
        <time>2019-09-24T09:58:31Z</time>
      </trkpt>
      <trkpt lat="42.6885717922999" lon="-2.4688845573687">
        <time>2019-09-24T09:58:31Z</time>
      </trkpt>
      <trkpt lat="42.688660070644" lon="-2.46890351878522">
        <time>2019-09-24T09:58:31Z</time>
      </trkpt>
      <trkpt lat="42.6886850495326" lon="-2.46892068993673">
        <time>2019-09-24T09:58:31Z</time>
      </trkpt>
      <trkpt lat="42.6887068648143" lon="-2.46894283003019">
        <time>2019-09-24T09:58:31Z</time>
      </trkpt>
      <trkpt lat="42.6887264376718" lon="-2.46896701684914">
        <time>2019-09-24T09:58:31Z</time>
      </trkpt>
      <trkpt lat="42.6887455239632" lon="-2.46899126921801">
        <time>2019-09-24T09:58:31Z</time>
      </trkpt>
      <trkpt lat="42.6887653626964" lon="-2.46901446472308">
        <time>2019-09-24T09:58:31Z</time>
      </trkpt>
      <trkpt lat="42.6887860396811" lon="-2.46903584547554">
        <time>2019-09-24T09:58:31Z</time>
      </trkpt>
      <trkpt lat="42.6888070044458" lon="-2.46905525927311">
        <time>2019-09-24T09:58:31Z</time>
      </trkpt>
      <trkpt lat="42.6888276273507" lon="-2.46907284448966">
        <time>2019-09-24T09:58:31Z</time>
      </trkpt>
      <trkpt lat="42.6888479538235" lon="-2.46909053114988">
        <time>2019-09-24T09:58:31Z</time>
      </trkpt>
      <trkpt lat="42.6888688187668" lon="-2.46911175346654">
        <time>2019-09-24T09:58:31Z</time>
      </trkpt>
      <trkpt lat="42.6888901278221" lon="-2.46913759682648">
        <time>2019-09-24T09:58:31Z</time>
      </trkpt>
      <trkpt lat="42.6889107115496" lon="-2.46916627890572">
        <time>2019-09-24T09:58:31Z</time>
      </trkpt>
      <trkpt lat="42.6889293138953" lon="-2.46919660133059">
        <time>2019-09-24T09:58:31Z</time>
      </trkpt>
      <trkpt lat="42.6889459306513" lon="-2.4692281991981">
        <time>2019-09-24T09:58:31Z</time>
      </trkpt>
      <trkpt lat="42.6889615569132" lon="-2.46926161144245">
        <time>2019-09-24T09:58:31Z</time>
      </trkpt>
      <trkpt lat="42.6889763594149" lon="-2.46929589701526">
        <time>2019-09-24T09:58:31Z</time>
      </trkpt>
      <trkpt lat="42.6889906600928" lon="-2.46933102930146">
        <time>2019-09-24T09:58:31Z</time>
      </trkpt>
      <trkpt lat="42.6890051115821" lon="-2.46936558733392">
        <time>2019-09-24T09:58:31Z</time>
      </trkpt>
      <trkpt lat="42.6890199865963" lon="-2.46939815167334">
        <time>2019-09-24T09:58:31Z</time>
      </trkpt>
      <trkpt lat="42.6890350018418" lon="-2.46942785672292">
        <time>2019-09-24T09:58:31Z</time>
      </trkpt>
      <trkpt lat="42.6890495447363" lon="-2.4694549924812">
        <time>2019-09-24T09:58:31Z</time>
      </trkpt>
      <trkpt lat="42.6890631819332" lon="-2.46948079216728">
        <time>2019-09-24T09:58:31Z</time>
      </trkpt>
      <trkpt lat="42.6890763611287" lon="-2.46950712099941">
        <time>2019-09-24T09:58:31Z</time>
      </trkpt>
      <trkpt lat="42.689089910633" lon="-2.46953544873675">
        <time>2019-09-24T09:58:31Z</time>
      </trkpt>
      <trkpt lat="42.6891041987539" lon="-2.46956571085642">
        <time>2019-09-24T09:58:31Z</time>
      </trkpt>
      <trkpt lat="42.6891192308276" lon="-2.46959742982588">
        <time>2019-09-24T09:58:31Z</time>
      </trkpt>
      <trkpt lat="42.6891501313311" lon="-2.46965837433954">
        <time>2019-09-24T09:58:31Z</time>
      </trkpt>
      <trkpt lat="42.6891654426052" lon="-2.46968600332546">
        <time>2019-09-24T09:58:31Z</time>
      </trkpt>
      <trkpt lat="42.6891804269332" lon="-2.46971312180373">
        <time>2019-09-24T09:58:31Z</time>
      </trkpt>
      <trkpt lat="42.6891946060207" lon="-2.46974130955846">
        <time>2019-09-24T09:58:31Z</time>
      </trkpt>
      <trkpt lat="42.689207545033" lon="-2.46977202322155">
        <time>2019-09-24T09:58:31Z</time>
      </trkpt>
      <trkpt lat="42.6892188033103" lon="-2.46980546094652">
        <time>2019-09-24T09:58:31Z</time>
      </trkpt>
      <trkpt lat="42.6892280373916" lon="-2.46984107653853">
        <time>2019-09-24T09:58:31Z</time>
      </trkpt>
      <trkpt lat="42.6892351797681" lon="-2.46987841865846">
        <time>2019-09-24T09:58:31Z</time>
      </trkpt>
      <trkpt lat="42.6892404813348" lon="-2.46991678939838">
        <time>2019-09-24T09:58:31Z</time>
      </trkpt>
      <trkpt lat="42.6892443000165" lon="-2.46995578325623">
        <time>2019-09-24T09:58:31Z</time>
      </trkpt>
      <trkpt lat="42.6892469617883" lon="-2.46999570271138">
        <time>2019-09-24T09:58:31Z</time>
      </trkpt>
      <trkpt lat="42.689248672953" lon="-2.47003654430296">
        <time>2019-09-24T09:58:31Z</time>
      </trkpt>
      <trkpt lat="42.6892496466636" lon="-2.4700778815921">
        <time>2019-09-24T09:58:31Z</time>
      </trkpt>
      <trkpt lat="42.689250218466" lon="-2.47011963839693">
        <time>2019-09-24T09:58:31Z</time>
      </trkpt>
      <trkpt lat="42.6892505753363" lon="-2.47016171251376">
        <time>2019-09-24T09:58:31Z</time>
      </trkpt>
      <trkpt lat="42.6892501512888" lon="-2.4702044054775">
        <time>2019-09-24T09:58:31Z</time>
      </trkpt>
      <trkpt lat="42.6892472110449" lon="-2.47024816859236">
        <time>2019-09-24T09:58:31Z</time>
      </trkpt>
      <trkpt lat="42.6892409537031" lon="-2.47029337700664">
        <time>2019-09-24T09:58:31Z</time>
      </trkpt>
      <trkpt lat="42.6892327440746" lon="-2.47033890554329">
        <time>2019-09-24T09:58:31Z</time>
      </trkpt>
      <trkpt lat="42.6892232604237" lon="-2.47038533677311">
        <time>2019-09-24T09:58:31Z</time>
      </trkpt>
      <trkpt lat="42.6892143416745" lon="-2.4704276977024">
        <time>2019-09-24T09:58:31Z</time>
      </trkpt>
      <trkpt lat="42.6892059442345" lon="-2.47046744334409">
        <time>2019-09-24T09:58:31Z</time>
      </trkpt>
      <trkpt lat="42.6891981924336" lon="-2.47050507059845">
        <time>2019-09-24T09:58:31Z</time>
      </trkpt>
      <trkpt lat="42.6891910511466" lon="-2.4705400562319">
        <time>2019-09-24T09:58:31Z</time>
      </trkpt>
      <trkpt lat="42.6891853114328" lon="-2.47057043923103">
        <time>2019-09-24T09:58:31Z</time>
      </trkpt>
      <trkpt lat="42.6891823271562" lon="-2.47059326812987">
        <time>2019-09-24T09:58:31Z</time>
      </trkpt>
      <trkpt lat="42.6891753384445" lon="-2.47061853382258">
        <time>2019-09-24T09:58:31Z</time>
      </trkpt>
      <trkpt lat="42.6891706260432" lon="-2.47063546844878">
        <time>2019-09-24T09:58:31Z</time>
      </trkpt>
      <trkpt lat="42.6891656626111" lon="-2.47066042532864">
        <time>2019-09-24T09:58:31Z</time>
      </trkpt>
      <trkpt lat="42.6891605315505" lon="-2.47069021821242">
        <time>2019-09-24T09:58:31Z</time>
      </trkpt>
      <trkpt lat="42.6891530113351" lon="-2.47072325442781">
        <time>2019-09-24T09:58:31Z</time>
      </trkpt>
      <trkpt lat="42.6891484974857" lon="-2.47075376170683">
        <time>2019-09-24T09:58:31Z</time>
      </trkpt>
      <trkpt lat="42.6891402416659" lon="-2.47078932973107">
        <time>2019-09-24T09:58:31Z</time>
      </trkpt>
      <trkpt lat="42.689131055573" lon="-2.47082450318538">
        <time>2019-09-24T09:58:31Z</time>
      </trkpt>
      <trkpt lat="42.6891206272188" lon="-2.4708576493142">
        <time>2019-09-24T09:58:31Z</time>
      </trkpt>
      <trkpt lat="42.6891088771347" lon="-2.47088926674423">
        <time>2019-09-24T09:58:31Z</time>
      </trkpt>
      <trkpt lat="42.6890959616328" lon="-2.47091996806286">
        <time>2019-09-24T09:58:31Z</time>
      </trkpt>
      <trkpt lat="42.6890820344986" lon="-2.47095009132254">
        <time>2019-09-24T09:58:31Z</time>
      </trkpt>
      <trkpt lat="42.6890670432213" lon="-2.47097997973671">
        <time>2019-09-24T09:58:31Z</time>
      </trkpt>
      <trkpt lat="42.6890508974674" lon="-2.47100941408433">
        <time>2019-09-24T09:58:31Z</time>
      </trkpt>
      <trkpt lat="42.689033499538" lon="-2.47103712473143">
        <time>2019-09-24T09:58:31Z</time>
      </trkpt>
      <trkpt lat="42.6890153818524" lon="-2.47106071630685">
        <time>2019-09-24T09:58:31Z</time>
      </trkpt>
      <trkpt lat="42.6889982444611" lon="-2.47108218837122">
        <time>2019-09-24T09:58:31Z</time>
      </trkpt>
      <trkpt lat="42.6889842679737" lon="-2.47110162986563">
        <time>2019-09-24T09:58:31Z</time>
      </trkpt>
      <trkpt lat="42.6889744163019" lon="-2.4711133709698">
        <time>2019-09-24T09:58:31Z</time>
      </trkpt>
      <trkpt lat="42.6889687904807" lon="-2.47111586070078">
        <time>2019-09-24T09:58:31Z</time>
      </trkpt>
      <trkpt lat="42.6889673657841" lon="-2.47111355355584">
        <time>2019-09-24T09:58:31Z</time>
      </trkpt>
      <trkpt lat="42.6889598593215" lon="-2.47111253094055">
        <time>2019-09-24T09:58:31Z</time>
      </trkpt>
      <trkpt lat="42.688953715257" lon="-2.47112757277677">
        <time>2019-09-24T09:58:31Z</time>
      </trkpt>
      <trkpt lat="42.6889455542025" lon="-2.4711504454711">
        <time>2019-09-24T09:58:31Z</time>
      </trkpt>
      <trkpt lat="42.688935535312" lon="-2.47118074350883">
        <time>2019-09-24T09:58:31Z</time>
      </trkpt>
      <trkpt lat="42.6889301445369" lon="-2.47120090511983">
        <time>2019-09-24T09:58:31Z</time>
      </trkpt>
      <trkpt lat="42.6889182520337" lon="-2.47121940290758">
        <time>2019-09-24T09:58:31Z</time>
      </trkpt>
      <trkpt lat="42.6889036272426" lon="-2.47123494467488">
        <time>2019-09-24T09:58:31Z</time>
      </trkpt>
      <trkpt lat="42.6888845357432" lon="-2.47125062151494">
        <time>2019-09-24T09:58:31Z</time>
      </trkpt>
      <trkpt lat="42.6888645150737" lon="-2.47126586795895">
        <time>2019-09-24T09:58:31Z</time>
      </trkpt>
      <trkpt lat="42.6888481952231" lon="-2.47127912872439">
        <time>2019-09-24T09:58:31Z</time>
      </trkpt>
      <trkpt lat="42.6888323017183" lon="-2.47128336476738">
        <time>2019-09-24T09:58:31Z</time>
      </trkpt>
      <trkpt lat="42.6888297461414" lon="-2.4712876224318">
        <time>2019-09-24T09:58:31Z</time>
      </trkpt>
      <trkpt lat="42.6888236660252" lon="-2.47129717086792">
        <time>2019-09-24T09:58:31Z</time>
      </trkpt>
      <trkpt lat="42.6888135509442" lon="-2.471312357168">
        <time>2019-09-24T09:58:31Z</time>
      </trkpt>
      <trkpt lat="42.6888002625451" lon="-2.47133261126816">
        <time>2019-09-24T09:58:31Z</time>
      </trkpt>
      <trkpt lat="42.6887855977014" lon="-2.4713571982868">
        <time>2019-09-24T09:58:31Z</time>
      </trkpt>
      <trkpt lat="42.6887722797381" lon="-2.47138467972415">
        <time>2019-09-24T09:58:31Z</time>
      </trkpt>
      <trkpt lat="42.6887627796775" lon="-2.47141210320472">
        <time>2019-09-24T09:58:31Z</time>
      </trkpt>
      <trkpt lat="42.6887571444154" lon="-2.4714379079775">
        <time>2019-09-24T09:58:31Z</time>
      </trkpt>
      <trkpt lat="42.6887557937142" lon="-2.47146145611433">
        <time>2019-09-24T09:58:31Z</time>
      </trkpt>
      <trkpt lat="42.6887570962452" lon="-2.47148800698093">
        <time>2019-09-24T09:58:31Z</time>
      </trkpt>
      <trkpt lat="42.688759796156" lon="-2.47151885532337">
        <time>2019-09-24T09:58:31Z</time>
      </trkpt>
      <trkpt lat="42.6887625945348" lon="-2.4715535977622">
        <time>2019-09-24T09:58:31Z</time>
      </trkpt>
      <trkpt lat="42.6887647991063" lon="-2.47159025006777">
        <time>2019-09-24T09:58:31Z</time>
      </trkpt>
      <trkpt lat="42.688766456673" lon="-2.47162750386974">
        <time>2019-09-24T09:58:31Z</time>
      </trkpt>
      <trkpt lat="42.6887680354064" lon="-2.47166512498339">
        <time>2019-09-24T09:58:31Z</time>
      </trkpt>
      <trkpt lat="42.6887698575345" lon="-2.47170287705097">
        <time>2019-09-24T09:58:31Z</time>
      </trkpt>
      <trkpt lat="42.6887719478006" lon="-2.47174039663221">
        <time>2019-09-24T09:58:31Z</time>
      </trkpt>
      <trkpt lat="42.6887738123302" lon="-2.47177752761222">
        <time>2019-09-24T09:58:31Z</time>
      </trkpt>
      <trkpt lat="42.6887749895088" lon="-2.47181401639891">
        <time>2019-09-24T09:58:31Z</time>
      </trkpt>
      <trkpt lat="42.6887753075811" lon="-2.47184971949449">
        <time>2019-09-24T09:58:31Z</time>
      </trkpt>
      <trkpt lat="42.6887748613467" lon="-2.47188391474821">
        <time>2019-09-24T09:58:31Z</time>
      </trkpt>
      <trkpt lat="42.6887738336831" lon="-2.47191506412537">
        <time>2019-09-24T09:58:31Z</time>
      </trkpt>
      <trkpt lat="42.6887724726912" lon="-2.47194022215846">
        <time>2019-09-24T09:58:31Z</time>
      </trkpt>
      <trkpt lat="42.6887710450523" lon="-2.47195665297661">
        <time>2019-09-24T09:58:31Z</time>
      </trkpt>
      <trkpt lat="42.6887634102941" lon="-2.471976652707">
        <time>2019-09-24T09:58:31Z</time>
      </trkpt>
      <trkpt lat="42.6887613645697" lon="-2.47199382033387">
        <time>2019-09-24T09:58:31Z</time>
      </trkpt>
      <trkpt lat="42.6887592799418" lon="-2.47201646915538">
        <time>2019-09-24T09:58:31Z</time>
      </trkpt>
      <trkpt lat="42.6887580345413" lon="-2.4720432377196">
        <time>2019-09-24T09:58:31Z</time>
      </trkpt>
      <trkpt lat="42.6887588221541" lon="-2.47207328543404">
        <time>2019-09-24T09:58:31Z</time>
      </trkpt>
      <trkpt lat="42.6887627363743" lon="-2.47210586975992">
        <time>2019-09-24T09:58:31Z</time>
      </trkpt>
      <trkpt lat="42.6887706475733" lon="-2.47214012897397">
        <time>2019-09-24T09:58:31Z</time>
      </trkpt>
      <trkpt lat="42.6887827659978" lon="-2.47217473116136">
        <time>2019-09-24T09:58:31Z</time>
      </trkpt>
      <trkpt lat="42.688798537818" lon="-2.4722085214056">
        <time>2019-09-24T09:58:31Z</time>
      </trkpt>
      <trkpt lat="42.6888168887751" lon="-2.47224125130246">
        <time>2019-09-24T09:58:31Z</time>
      </trkpt>
      <trkpt lat="42.6888367216028" lon="-2.4722731398951">
        <time>2019-09-24T09:58:31Z</time>
      </trkpt>
      <trkpt lat="42.6888570750226" lon="-2.47230470520876">
        <time>2019-09-24T09:58:31Z</time>
      </trkpt>
      <trkpt lat="42.6888772322316" lon="-2.47233655528541">
        <time>2019-09-24T09:58:31Z</time>
      </trkpt>
      <trkpt lat="42.6888966705536" lon="-2.47236883608892">
        <time>2019-09-24T09:58:31Z</time>
      </trkpt>
      <trkpt lat="42.68891492012" lon="-2.47240114061362">
        <time>2019-09-24T09:58:31Z</time>
      </trkpt>
      <trkpt lat="42.6889314173694" lon="-2.47243238563515">
        <time>2019-09-24T09:58:31Z</time>
      </trkpt>
      <trkpt lat="42.6889455881078" lon="-2.47246081782812">
        <time>2019-09-24T09:58:31Z</time>
      </trkpt>
      <trkpt lat="42.6889569174668" lon="-2.4724844531455">
        <time>2019-09-24T09:58:31Z</time>
      </trkpt>
      <trkpt lat="42.6889651357634" lon="-2.47250127817981">
        <time>2019-09-24T09:58:31Z</time>
      </trkpt>
      <trkpt lat="42.6889738329081" lon="-2.47251444979171">
        <time>2019-09-24T09:58:31Z</time>
      </trkpt>
      <trkpt lat="42.6889967310342" lon="-2.4725508777537">
        <time>2019-09-24T09:58:31Z</time>
      </trkpt>
      <trkpt lat="42.6890037020746" lon="-2.47256485695229">
        <time>2019-09-24T09:58:31Z</time>
      </trkpt>
      <trkpt lat="42.6890133623936" lon="-2.47258202281295">
        <time>2019-09-24T09:58:31Z</time>
      </trkpt>
      <trkpt lat="42.6890250403932" lon="-2.47260105257774">
        <time>2019-09-24T09:58:31Z</time>
      </trkpt>
      <trkpt lat="42.6890381604316" lon="-2.472620424859">
        <time>2019-09-24T09:58:31Z</time>
      </trkpt>
      <trkpt lat="42.6890522024396" lon="-2.47263866554611">
        <time>2019-09-24T09:58:31Z</time>
      </trkpt>
      <trkpt lat="42.6890668661257" lon="-2.47265476421965">
        <time>2019-09-24T09:58:31Z</time>
      </trkpt>
      <trkpt lat="42.6890820296263" lon="-2.47266821031355">
        <time>2019-09-24T09:58:31Z</time>
      </trkpt>
      <trkpt lat="42.6890975683083" lon="-2.4726787115653">
        <time>2019-09-24T09:58:31Z</time>
      </trkpt>
      <trkpt lat="42.6891133340291" lon="-2.47268606117673">
        <time>2019-09-24T09:58:31Z</time>
      </trkpt>
      <trkpt lat="42.6891293503471" lon="-2.47269100417117">
        <time>2019-09-24T09:58:31Z</time>
      </trkpt>
      <trkpt lat="42.6891458376803" lon="-2.47269441692292">
        <time>2019-09-24T09:58:31Z</time>
      </trkpt>
      <trkpt lat="42.6891627338778" lon="-2.47269700936997">
        <time>2019-09-24T09:58:31Z</time>
      </trkpt>
      <trkpt lat="42.6891800714234" lon="-2.4726992791909">
        <time>2019-09-24T09:58:31Z</time>
      </trkpt>
      <trkpt lat="42.6891983914483" lon="-2.47270181014538">
        <time>2019-09-24T09:58:31Z</time>
      </trkpt>
      <trkpt lat="42.6892178373018" lon="-2.47270458737892">
        <time>2019-09-24T09:58:31Z</time>
      </trkpt>
      <trkpt lat="42.689237987444" lon="-2.47270759058217">
        <time>2019-09-24T09:58:31Z</time>
      </trkpt>
      <trkpt lat="42.6892584639472" lon="-2.47271098154653">
        <time>2019-09-24T09:58:31Z</time>
      </trkpt>
      <trkpt lat="42.6892788188467" lon="-2.47271555874172">
        <time>2019-09-24T09:58:31Z</time>
      </trkpt>
      <trkpt lat="42.6892989212587" lon="-2.47272185874769">
        <time>2019-09-24T09:58:31Z</time>
      </trkpt>
      <trkpt lat="42.6893191186622" lon="-2.4727293909046">
        <time>2019-09-24T09:58:31Z</time>
      </trkpt>
      <trkpt lat="42.6893396411313" lon="-2.47273702945836">
        <time>2019-09-24T09:58:31Z</time>
      </trkpt>
      <trkpt lat="42.6893603329165" lon="-2.47274400832933">
        <time>2019-09-24T09:58:31Z</time>
      </trkpt>
      <trkpt lat="42.6893808305034" lon="-2.47275034082273">
        <time>2019-09-24T09:58:31Z</time>
      </trkpt>
      <trkpt lat="42.6894007451707" lon="-2.4727568504874">
        <time>2019-09-24T09:58:31Z</time>
      </trkpt>
      <trkpt lat="42.6894197072605" lon="-2.4727638559348">
        <time>2019-09-24T09:58:31Z</time>
      </trkpt>
      <trkpt lat="42.6894378209483" lon="-2.47277075771384">
        <time>2019-09-24T09:58:31Z</time>
      </trkpt>
      <trkpt lat="42.6894552310109" lon="-2.47277703106398">
        <time>2019-09-24T09:58:31Z</time>
      </trkpt>
      <trkpt lat="42.689471399113" lon="-2.47278160617878">
        <time>2019-09-24T09:58:31Z</time>
      </trkpt>
      <trkpt lat="42.689484583671" lon="-2.47278383952523">
        <time>2019-09-24T09:58:31Z</time>
      </trkpt>
      <trkpt lat="42.6894953858229" lon="-2.47278860667354">
        <time>2019-09-24T09:58:31Z</time>
      </trkpt>
      <trkpt lat="42.6895027246551" lon="-2.47279257261108">
        <time>2019-09-24T09:58:31Z</time>
      </trkpt>
      <trkpt lat="42.6895088923202" lon="-2.47279409448147">
        <time>2019-09-24T09:58:31Z</time>
      </trkpt>
      <trkpt lat="42.6895161027706" lon="-2.47279750045219">
        <time>2019-09-24T09:58:31Z</time>
      </trkpt>
      <trkpt lat="42.6895291030482" lon="-2.47280643731279">
        <time>2019-09-24T09:58:31Z</time>
      </trkpt>
      <trkpt lat="42.6895425040559" lon="-2.47281251265341">
        <time>2019-09-24T09:58:31Z</time>
      </trkpt>
      <trkpt lat="42.6895564477816" lon="-2.47281924337139">
        <time>2019-09-24T09:58:31Z</time>
      </trkpt>
      <trkpt lat="42.6895674366208" lon="-2.47282548577042">
        <time>2019-09-24T09:58:31Z</time>
      </trkpt>
      <trkpt lat="42.6895851439058" lon="-2.47283593128983">
        <time>2019-09-24T09:58:31Z</time>
      </trkpt>
      <trkpt lat="42.6896068700188" lon="-2.47284869960843">
        <time>2019-09-24T09:58:31Z</time>
      </trkpt>
      <trkpt lat="42.6896265026628" lon="-2.47286063126239">
        <time>2019-09-24T09:58:31Z</time>
      </trkpt>
      <trkpt lat="42.6896467211958" lon="-2.47287248464128">
        <time>2019-09-24T09:58:31Z</time>
      </trkpt>
      <trkpt lat="42.6896669666476" lon="-2.47288444694165">
        <time>2019-09-24T09:58:31Z</time>
      </trkpt>
      <trkpt lat="42.6896893544282" lon="-2.47289829599878">
        <time>2019-09-24T09:58:31Z</time>
      </trkpt>
      <trkpt lat="42.6897051946869" lon="-2.47290790467399">
        <time>2019-09-24T09:58:31Z</time>
      </trkpt>
      <trkpt lat="42.6897249173643" lon="-2.47291999249499">
        <time>2019-09-24T09:58:31Z</time>
      </trkpt>
      <trkpt lat="42.6897431252972" lon="-2.4729315218401">
        <time>2019-09-24T09:58:31Z</time>
      </trkpt>
      <trkpt lat="42.6897602825821" lon="-2.47294355973688">
        <time>2019-09-24T09:58:31Z</time>
      </trkpt>
      <trkpt lat="42.6897753510586" lon="-2.47295577389294">
        <time>2019-09-24T09:58:31Z</time>
      </trkpt>
      <trkpt lat="42.6897993123374" lon="-2.47298268282403">
        <time>2019-09-24T09:58:31Z</time>
      </trkpt>
      <trkpt lat="42.6898160417232" lon="-2.47300562659408">
        <time>2019-09-24T09:58:31Z</time>
      </trkpt>
      <trkpt lat="42.6898328630294" lon="-2.47301327270516">
        <time>2019-09-24T09:58:31Z</time>
      </trkpt>
      <trkpt lat="42.689851637116" lon="-2.47302262300383">
        <time>2019-09-24T09:58:31Z</time>
      </trkpt>
      <trkpt lat="42.6898727987679" lon="-2.47303603059842">
        <time>2019-09-24T09:58:31Z</time>
      </trkpt>
      <trkpt lat="42.6898879211441" lon="-2.47304437492459">
        <time>2019-09-24T09:58:31Z</time>
      </trkpt>
      <trkpt lat="42.6898967765404" lon="-2.47304902387895">
        <time>2019-09-24T09:58:31Z</time>
      </trkpt>
      <trkpt lat="42.6899265963933" lon="-2.47305538858786">
        <time>2019-09-24T09:58:31Z</time>
      </trkpt>
      <trkpt lat="42.6899338033704" lon="-2.47305585292529">
        <time>2019-09-24T09:58:31Z</time>
      </trkpt>
      <trkpt lat="42.689947732313" lon="-2.47305937270404">
        <time>2019-09-24T09:58:31Z</time>
      </trkpt>
      <trkpt lat="42.6899732909045" lon="-2.47307334174847">
        <time>2019-09-24T09:58:31Z</time>
      </trkpt>
      <trkpt lat="42.6899894006977" lon="-2.47307891850633">
        <time>2019-09-24T09:58:31Z</time>
      </trkpt>
      <trkpt lat="42.6900104246092" lon="-2.4730820730782">
        <time>2019-09-24T09:58:31Z</time>
      </trkpt>
      <trkpt lat="42.6900175663255" lon="-2.47308202466207">
        <time>2019-09-24T09:58:31Z</time>
      </trkpt>
      <trkpt lat="42.6900418200943" lon="-2.47308855922097">
        <time>2019-09-24T09:58:31Z</time>
      </trkpt>
      <trkpt lat="42.6900578268129" lon="-2.47309114568367">
        <time>2019-09-24T09:58:31Z</time>
      </trkpt>
      <trkpt lat="42.6900719434423" lon="-2.47309444390132">
        <time>2019-09-24T09:58:31Z</time>
      </trkpt>
      <trkpt lat="42.6900872212046" lon="-2.47309909999593">
        <time>2019-09-24T09:58:31Z</time>
      </trkpt>
      <trkpt lat="42.6901038364007" lon="-2.47310706680635">
        <time>2019-09-24T09:58:31Z</time>
      </trkpt>
      <trkpt lat="42.6901216085833" lon="-2.47311193375474">
        <time>2019-09-24T09:58:31Z</time>
      </trkpt>
      <trkpt lat="42.6901378289138" lon="-2.47312403937788">
        <time>2019-09-24T09:58:31Z</time>
      </trkpt>
      <trkpt lat="42.6901500943198" lon="-2.47313568046483">
        <time>2019-09-24T09:58:31Z</time>
      </trkpt>
      <trkpt lat="42.6901624931768" lon="-2.47314132442367">
        <time>2019-09-24T09:58:31Z</time>
      </trkpt>
      <trkpt lat="42.6901763246119" lon="-2.47314497978039">
        <time>2019-09-24T09:58:31Z</time>
      </trkpt>
      <trkpt lat="42.6901936656721" lon="-2.4731502051006">
        <time>2019-09-24T09:58:31Z</time>
      </trkpt>
      <trkpt lat="42.6902106138534" lon="-2.47315781270626">
        <time>2019-09-24T09:58:31Z</time>
      </trkpt>
      <trkpt lat="42.6902308367851" lon="-2.47318266784418">
        <time>2019-09-24T09:58:31Z</time>
      </trkpt>
      <trkpt lat="42.6902458064151" lon="-2.4731889858816">
        <time>2019-09-24T09:58:31Z</time>
      </trkpt>
      <trkpt lat="42.690260773618" lon="-2.47319696495451">
        <time>2019-09-24T09:58:31Z</time>
      </trkpt>
      <trkpt lat="42.690275043577" lon="-2.47320597654379">
        <time>2019-09-24T09:58:31Z</time>
      </trkpt>
      <trkpt lat="42.6902892654873" lon="-2.47321438825925">
        <time>2019-09-24T09:58:31Z</time>
      </trkpt>
      <trkpt lat="42.6902992230168" lon="-2.47322151947501">
        <time>2019-09-24T09:58:31Z</time>
      </trkpt>
      <trkpt lat="42.6903097680882" lon="-2.47322728997394">
        <time>2019-09-24T09:58:31Z</time>
      </trkpt>
      <trkpt lat="42.6903187648792" lon="-2.47323533144244">
        <time>2019-09-24T09:58:31Z</time>
      </trkpt>
      <trkpt lat="42.6903326571875" lon="-2.47324648134133">
        <time>2019-09-24T09:58:31Z</time>
      </trkpt>
      <trkpt lat="42.6903477604353" lon="-2.47325833044204">
        <time>2019-09-24T09:58:31Z</time>
      </trkpt>
      <trkpt lat="42.6903607055082" lon="-2.47326703434919">
        <time>2019-09-24T09:58:31Z</time>
      </trkpt>
      <trkpt lat="42.6903714798516" lon="-2.47327369311941">
        <time>2019-09-24T09:58:31Z</time>
      </trkpt>
      <trkpt lat="42.6903816239177" lon="-2.47328062666235">
        <time>2019-09-24T09:58:31Z</time>
      </trkpt>
      <trkpt lat="42.690392990756" lon="-2.47328891757245">
        <time>2019-09-24T09:58:31Z</time>
      </trkpt>
      <trkpt lat="42.690402662104" lon="-2.47329646563061">
        <time>2019-09-24T09:58:31Z</time>
      </trkpt>
      <trkpt lat="42.6904137762479" lon="-2.47330479449344">
        <time>2019-09-24T09:58:31Z</time>
      </trkpt>
      <trkpt lat="42.6904255505941" lon="-2.47331333777319">
        <time>2019-09-24T09:58:31Z</time>
      </trkpt>
      <trkpt lat="42.690436699259" lon="-2.47332124001145">
        <time>2019-09-24T09:58:31Z</time>
      </trkpt>
      <trkpt lat="42.6904491121385" lon="-2.47332993650185">
        <time>2019-09-24T09:58:31Z</time>
      </trkpt>
      <trkpt lat="42.6904614634302" lon="-2.47333864545341">
        <time>2019-09-24T09:58:31Z</time>
      </trkpt>
      <trkpt lat="42.6904727322306" lon="-2.47334723053406">
        <time>2019-09-24T09:58:31Z</time>
      </trkpt>
      <trkpt lat="42.690482848421" lon="-2.47335576396057">
        <time>2019-09-24T09:58:31Z</time>
      </trkpt>
      <trkpt lat="42.6904926417517" lon="-2.47336439732223">
        <time>2019-09-24T09:58:31Z</time>
      </trkpt>
      <trkpt lat="42.6905020825598" lon="-2.47337297227122">
        <time>2019-09-24T09:58:31Z</time>
      </trkpt>
      <trkpt lat="42.6905108643323" lon="-2.47338103947639">
        <time>2019-09-24T09:58:31Z</time>
      </trkpt>
      <trkpt lat="42.6905198084842" lon="-2.47338940033933">
        <time>2019-09-24T09:58:31Z</time>
      </trkpt>
      <trkpt lat="42.690529917096" lon="-2.47339820158434">
        <time>2019-09-24T09:58:31Z</time>
      </trkpt>
      <trkpt lat="42.690539916508" lon="-2.47340678376319">
        <time>2019-09-24T09:58:31Z</time>
      </trkpt>
      <trkpt lat="42.6905506743636" lon="-2.47341560511093">
        <time>2019-09-24T09:58:31Z</time>
      </trkpt>
      <trkpt lat="42.6905641323349" lon="-2.47342641768729">
        <time>2019-09-24T09:58:31Z</time>
      </trkpt>
      <trkpt lat="42.6905783083833" lon="-2.47343854074168">
        <time>2019-09-24T09:58:31Z</time>
      </trkpt>
      <trkpt lat="42.6905943962158" lon="-2.47345303004459">
        <time>2019-09-24T09:58:31Z</time>
      </trkpt>
      <trkpt lat="42.6906105849133" lon="-2.47346811537939">
        <time>2019-09-24T09:58:31Z</time>
      </trkpt>
      <trkpt lat="42.690626786259" lon="-2.47348376338435">
        <time>2019-09-24T09:58:31Z</time>
      </trkpt>
      <trkpt lat="42.6906421544826" lon="-2.47349852652848">
        <time>2019-09-24T09:58:31Z</time>
      </trkpt>
      <trkpt lat="42.6906559703808" lon="-2.47351276559886">
        <time>2019-09-24T09:58:31Z</time>
      </trkpt>
      <trkpt lat="42.6906678657249" lon="-2.47352628929209">
        <time>2019-09-24T09:58:31Z</time>
      </trkpt>
      <trkpt lat="42.6906772366676" lon="-2.47353910099987">
        <time>2019-09-24T09:58:31Z</time>
      </trkpt>
      <trkpt lat="42.6906832131688" lon="-2.47355022066153">
        <time>2019-09-24T09:58:31Z</time>
      </trkpt>
      <trkpt lat="42.690701495317" lon="-2.47356805958239">
        <time>2019-09-24T09:58:31Z</time>
      </trkpt>
      <trkpt lat="42.6907095285931" lon="-2.47357394858974">
        <time>2019-09-24T09:58:31Z</time>
      </trkpt>
      <trkpt lat="42.6907190051397" lon="-2.47358428152819">
        <time>2019-09-24T09:58:31Z</time>
      </trkpt>
      <trkpt lat="42.690728151493" lon="-2.47359749932253">
        <time>2019-09-24T09:58:31Z</time>
      </trkpt>
      <trkpt lat="42.6907400123592" lon="-2.47361337844655">
        <time>2019-09-24T09:58:31Z</time>
      </trkpt>
      <trkpt lat="42.6907501953476" lon="-2.47362851455988">
        <time>2019-09-24T09:58:31Z</time>
      </trkpt>
      <trkpt lat="42.6907602373151" lon="-2.47364444656863">
        <time>2019-09-24T09:58:31Z</time>
      </trkpt>
      <trkpt lat="42.6907709553817" lon="-2.47366241078628">
        <time>2019-09-24T09:58:31Z</time>
      </trkpt>
      <trkpt lat="42.6907803323087" lon="-2.47368036245617">
        <time>2019-09-24T09:58:31Z</time>
      </trkpt>
      <trkpt lat="42.6907886011012" lon="-2.47369644246721">
        <time>2019-09-24T09:58:31Z</time>
      </trkpt>
      <trkpt lat="42.6907944857188" lon="-2.47370728155399">
        <time>2019-09-24T09:58:31Z</time>
      </trkpt>
      <trkpt lat="42.6907980333838" lon="-2.47371110914547">
        <time>2019-09-24T09:58:31Z</time>
      </trkpt>
      <trkpt lat="42.6908002404258" lon="-2.47370736770215">
        <time>2019-09-24T09:58:31Z</time>
      </trkpt>
      <trkpt lat="42.6908031592789" lon="-2.47369782200583">
        <time>2019-09-24T09:58:31Z</time>
      </trkpt>
      <trkpt lat="42.6908055921456" lon="-2.47368435977451">
        <time>2019-09-24T09:58:31Z</time>
      </trkpt>
      <trkpt lat="42.6908172239114" lon="-2.47367775561331">
        <time>2019-09-24T09:58:31Z</time>
      </trkpt>
      <trkpt lat="42.6908318667485" lon="-2.4736737386531">
        <time>2019-09-24T09:58:31Z</time>
      </trkpt>
      <trkpt lat="42.6908473677118" lon="-2.4736702993879">
        <time>2019-09-24T09:58:31Z</time>
      </trkpt>
      <trkpt lat="42.690862310852" lon="-2.47366702342911">
        <time>2019-09-24T09:58:31Z</time>
      </trkpt>
      <trkpt lat="42.6908756471288" lon="-2.47366312663662">
        <time>2019-09-24T09:58:31Z</time>
      </trkpt>
      <trkpt lat="42.6908854964727" lon="-2.4736584901575">
        <time>2019-09-24T09:58:31Z</time>
      </trkpt>
      <trkpt lat="42.6908917719023" lon="-2.47365444491385">
        <time>2019-09-24T09:58:31Z</time>
      </trkpt>
      <trkpt lat="42.6909014484731" lon="-2.47365327690514">
        <time>2019-09-24T09:58:31Z</time>
      </trkpt>
      <trkpt lat="42.6909084535966" lon="-2.47365115427198">
        <time>2019-09-24T09:58:31Z</time>
      </trkpt>
      <trkpt lat="42.6909179826382" lon="-2.47364553137842">
        <time>2019-09-24T09:58:31Z</time>
      </trkpt>
      <trkpt lat="42.6909293235696" lon="-2.47363641423325">
        <time>2019-09-24T09:58:31Z</time>
      </trkpt>
      <trkpt lat="42.6909415191559" lon="-2.47362520249687">
        <time>2019-09-24T09:58:31Z</time>
      </trkpt>
      <trkpt lat="42.6909534787397" lon="-2.47361355446844">
        <time>2019-09-24T09:58:31Z</time>
      </trkpt>
      <trkpt lat="42.690964065624" lon="-2.47360296512233">
        <time>2019-09-24T09:58:31Z</time>
      </trkpt>
      <trkpt lat="42.6909784272444" lon="-2.47358292172933">
        <time>2019-09-24T09:58:31Z</time>
      </trkpt>
      <trkpt lat="42.6909851980417" lon="-2.47358072773305">
        <time>2019-09-24T09:58:31Z</time>
      </trkpt>
      <trkpt lat="42.6909933699887" lon="-2.47357764364">
        <time>2019-09-24T09:58:31Z</time>
      </trkpt>
      <trkpt lat="42.6910028612057" lon="-2.47357364626574">
        <time>2019-09-24T09:58:31Z</time>
      </trkpt>
      <trkpt lat="42.6910143251218" lon="-2.47356966634155">
        <time>2019-09-24T09:58:31Z</time>
      </trkpt>
      <trkpt lat="42.6910283610837" lon="-2.47356691132612">
        <time>2019-09-24T09:58:31Z</time>
      </trkpt>
      <trkpt lat="42.6910445670403" lon="-2.4735660428884">
        <time>2019-09-24T09:58:31Z</time>
      </trkpt>
      <trkpt lat="42.6910620676836" lon="-2.47356657727287">
        <time>2019-09-24T09:58:31Z</time>
      </trkpt>
      <trkpt lat="42.6910802175869" lon="-2.4735676825919">
        <time>2019-09-24T09:58:31Z</time>
      </trkpt>
      <trkpt lat="42.6910986735608" lon="-2.47356831976014">
        <time>2019-09-24T09:58:31Z</time>
      </trkpt>
      <trkpt lat="42.6911173483025" lon="-2.47356783294512">
        <time>2019-09-24T09:58:31Z</time>
      </trkpt>
      <trkpt lat="42.6911360430335" lon="-2.47356567298803">
        <time>2019-09-24T09:58:31Z</time>
      </trkpt>
      <trkpt lat="42.6911542160303" lon="-2.47356167392386">
        <time>2019-09-24T09:58:31Z</time>
      </trkpt>
      <trkpt lat="42.6911715971599" lon="-2.47355591136315">
        <time>2019-09-24T09:58:31Z</time>
      </trkpt>
      <trkpt lat="42.6911885927907" lon="-2.47354866326051">
        <time>2019-09-24T09:58:31Z</time>
      </trkpt>
      <trkpt lat="42.6912065361741" lon="-2.47353986890118">
        <time>2019-09-24T09:58:31Z</time>
      </trkpt>
      <trkpt lat="42.6912270694525" lon="-2.4735301607552">
        <time>2019-09-24T09:58:31Z</time>
      </trkpt>
      <trkpt lat="42.6912500246052" lon="-2.47352048160798">
        <time>2019-09-24T09:58:31Z</time>
      </trkpt>
      <trkpt lat="42.6912714420978" lon="-2.4735112793011">
        <time>2019-09-24T09:58:31Z</time>
      </trkpt>
      <trkpt lat="42.6912976630345" lon="-2.47353415554241">
        <time>2019-09-24T09:58:31Z</time>
      </trkpt>
      <trkpt lat="42.6913077320634" lon="-2.47354036848724">
        <time>2019-09-24T09:58:31Z</time>
      </trkpt>
      <trkpt lat="42.6913226086616" lon="-2.47354396742133">
        <time>2019-09-24T09:58:31Z</time>
      </trkpt>
      <trkpt lat="42.6913379309102" lon="-2.47355283392553">
        <time>2019-09-24T09:58:31Z</time>
      </trkpt>
      <trkpt lat="42.691355779889" lon="-2.47356264605055">
        <time>2019-09-24T09:58:31Z</time>
      </trkpt>
      <trkpt lat="42.6913764017373" lon="-2.4735741299181">
        <time>2019-09-24T09:58:31Z</time>
      </trkpt>
      <trkpt lat="42.6913973996364" lon="-2.47358531729238">
        <time>2019-09-24T09:58:31Z</time>
      </trkpt>
      <trkpt lat="42.6914161195794" lon="-2.47359466845053">
        <time>2019-09-24T09:58:31Z</time>
      </trkpt>
      <trkpt lat="42.6914307942437" lon="-2.47360168669629">
        <time>2019-09-24T09:58:31Z</time>
      </trkpt>
      <trkpt lat="42.691442460495" lon="-2.47360642296102">
        <time>2019-09-24T09:58:31Z</time>
      </trkpt>
      <trkpt lat="42.6914525780861" lon="-2.47360924180811">
        <time>2019-09-24T09:58:31Z</time>
      </trkpt>
      <trkpt lat="42.6914609596526" lon="-2.47361070930042">
        <time>2019-09-24T09:58:31Z</time>
      </trkpt>
      <trkpt lat="42.691466000483" lon="-2.47361231584815">
        <time>2019-09-24T09:58:31Z</time>
      </trkpt>
      <trkpt lat="42.6914724630027" lon="-2.47361531221904">
        <time>2019-09-24T09:58:31Z</time>
      </trkpt>
      <trkpt lat="42.6914758200393" lon="-2.4736209116449">
        <time>2019-09-24T09:58:31Z</time>
      </trkpt>
      <trkpt lat="42.6914811167524" lon="-2.4736270080163">
        <time>2019-09-24T09:58:31Z</time>
      </trkpt>
      <trkpt lat="42.6914873459377" lon="-2.47363233932558">
        <time>2019-09-24T09:58:31Z</time>
      </trkpt>
      <trkpt lat="42.691493786226" lon="-2.47363652112972">
        <time>2019-09-24T09:58:31Z</time>
      </trkpt>
      <trkpt lat="42.6915002659999" lon="-2.47363971347804">
        <time>2019-09-24T09:58:31Z</time>
      </trkpt>
      <trkpt lat="42.6915070774792" lon="-2.47364226691798">
        <time>2019-09-24T09:58:31Z</time>
      </trkpt>
      <trkpt lat="42.6915148248079" lon="-2.47364479028777">
        <time>2019-09-24T09:58:31Z</time>
      </trkpt>
      <trkpt lat="42.6915238246838" lon="-2.47364748556017">
        <time>2019-09-24T09:58:31Z</time>
      </trkpt>
      <trkpt lat="42.6915337880771" lon="-2.47365014882374">
        <time>2019-09-24T09:58:31Z</time>
      </trkpt>
      <trkpt lat="42.6915439323122" lon="-2.47365301691319">
        <time>2019-09-24T09:58:31Z</time>
      </trkpt>
      <trkpt lat="42.6915534305613" lon="-2.47365657431701">
        <time>2019-09-24T09:58:31Z</time>
      </trkpt>
      <trkpt lat="42.6915617044135" lon="-2.47365978904325">
        <time>2019-09-24T09:58:31Z</time>
      </trkpt>
      <trkpt lat="42.6916074611875" lon="-2.47367163380499">
        <time>2019-09-24T09:58:31Z</time>
      </trkpt>
      <trkpt lat="42.6916127635569" lon="-2.4736910117083">
        <time>2019-09-24T09:58:31Z</time>
      </trkpt>
      <trkpt lat="42.6916295052153" lon="-2.47371255098757">
        <time>2019-09-24T09:58:31Z</time>
      </trkpt>
      <trkpt lat="42.6916388755622" lon="-2.47371154415898">
        <time>2019-09-24T09:58:31Z</time>
      </trkpt>
      <trkpt lat="42.691648078694" lon="-2.47370563063182">
        <time>2019-09-24T09:58:31Z</time>
      </trkpt>
      <trkpt lat="42.6916570968945" lon="-2.47369862209864">
        <time>2019-09-24T09:58:31Z</time>
      </trkpt>
      <trkpt lat="42.6916762581681" lon="-2.47370408813631">
        <time>2019-09-24T09:58:31Z</time>
      </trkpt>
      <trkpt lat="42.6916850675408" lon="-2.4737063927924">
        <time>2019-09-24T09:58:31Z</time>
      </trkpt>
      <trkpt lat="42.6916959916457" lon="-2.47370841355716">
        <time>2019-09-24T09:58:31Z</time>
      </trkpt>
      <trkpt lat="42.6917078965902" lon="-2.47371033906815">
        <time>2019-09-24T09:58:31Z</time>
      </trkpt>
      <trkpt lat="42.6917192858035" lon="-2.47371173173509">
        <time>2019-09-24T09:58:31Z</time>
      </trkpt>
      <trkpt lat="42.6917293249442" lon="-2.47371335749966">
        <time>2019-09-24T09:58:31Z</time>
      </trkpt>
      <trkpt lat="42.6917403992892" lon="-2.47372069782059">
        <time>2019-09-24T09:58:31Z</time>
      </trkpt>
      <trkpt lat="42.6917493532404" lon="-2.4737347582323">
        <time>2019-09-24T09:58:31Z</time>
      </trkpt>
      <trkpt lat="42.6917607994912" lon="-2.47374281680107">
        <time>2019-09-24T09:58:31Z</time>
      </trkpt>
      <trkpt lat="42.6917758771114" lon="-2.47374909839971">
        <time>2019-09-24T09:58:31Z</time>
      </trkpt>
      <trkpt lat="42.6917927082393" lon="-2.47375314307363">
        <time>2019-09-24T09:58:31Z</time>
      </trkpt>
      <trkpt lat="42.6918089182825" lon="-2.47375508171485">
        <time>2019-09-24T09:58:31Z</time>
      </trkpt>
      <trkpt lat="42.6918224200342" lon="-2.47375571300932">
        <time>2019-09-24T09:58:31Z</time>
      </trkpt>
      <trkpt lat="42.6918339698445" lon="-2.47375673767163">
        <time>2019-09-24T09:58:31Z</time>
      </trkpt>
      <trkpt lat="42.6918445606334" lon="-2.4737587732009">
        <time>2019-09-24T09:58:31Z</time>
      </trkpt>
      <trkpt lat="42.6918542608404" lon="-2.47376110787031">
        <time>2019-09-24T09:58:31Z</time>
      </trkpt>
      <trkpt lat="42.6918747169161" lon="-2.4737718378028">
        <time>2019-09-24T09:58:31Z</time>
      </trkpt>
      <trkpt lat="42.6918919342035" lon="-2.47378518216353">
        <time>2019-09-24T09:58:31Z</time>
      </trkpt>
      <trkpt lat="42.6919195536563" lon="-2.47380277215073">
        <time>2019-09-24T09:58:31Z</time>
      </trkpt>
      <trkpt lat="42.6919429050528" lon="-2.47382047150604">
        <time>2019-09-24T09:58:31Z</time>
      </trkpt>
      <trkpt lat="42.6919650477572" lon="-2.47383796107872">
        <time>2019-09-24T09:58:31Z</time>
      </trkpt>
      <trkpt lat="42.691986209076" lon="-2.47385515367939">
        <time>2019-09-24T09:58:31Z</time>
      </trkpt>
      <trkpt lat="42.6920069352912" lon="-2.47387183834373">
        <time>2019-09-24T09:58:31Z</time>
      </trkpt>
      <trkpt lat="42.692027531718" lon="-2.473887656066">
        <time>2019-09-24T09:58:31Z</time>
      </trkpt>
      <trkpt lat="42.6920479510905" lon="-2.47390245034727">
        <time>2019-09-24T09:58:31Z</time>
      </trkpt>
      <trkpt lat="42.6920680703445" lon="-2.47391626997606">
        <time>2019-09-24T09:58:31Z</time>
      </trkpt>
      <trkpt lat="42.692087859489" lon="-2.47392888497514">
        <time>2019-09-24T09:58:31Z</time>
      </trkpt>
      <trkpt lat="42.6921071318212" lon="-2.47393908778874">
        <time>2019-09-24T09:58:31Z</time>
      </trkpt>
      <trkpt lat="42.6921256321973" lon="-2.4739455605859">
        <time>2019-09-24T09:58:31Z</time>
      </trkpt>
      <trkpt lat="42.6921434095649" lon="-2.47394772993479">
        <time>2019-09-24T09:58:31Z</time>
      </trkpt>
      <trkpt lat="42.6921615693793" lon="-2.47394661145153">
        <time>2019-09-24T09:58:31Z</time>
      </trkpt>
      <trkpt lat="42.6921814046939" lon="-2.47394407528307">
        <time>2019-09-24T09:58:31Z</time>
      </trkpt>
      <trkpt lat="42.6922028202874" lon="-2.47394212437591">
        <time>2019-09-24T09:58:31Z</time>
      </trkpt>
      <trkpt lat="42.6922244795154" lon="-2.47394227247038">
        <time>2019-09-24T09:58:31Z</time>
      </trkpt>
      <trkpt lat="42.6922444698571" lon="-2.47394582669779">
        <time>2019-09-24T09:58:31Z</time>
      </trkpt>
      <trkpt lat="42.6922603856633" lon="-2.47395245604531">
        <time>2019-09-24T09:58:31Z</time>
      </trkpt>
      <trkpt lat="42.6922703310612" lon="-2.473959147709">
        <time>2019-09-24T09:58:31Z</time>
      </trkpt>
      <trkpt lat="42.6922750620845" lon="-2.47397164423251">
        <time>2019-09-24T09:58:31Z</time>
      </trkpt>
      <trkpt lat="42.6922835921726" lon="-2.47397778676324">
        <time>2019-09-24T09:58:31Z</time>
      </trkpt>
      <trkpt lat="42.692297139212" lon="-2.47398444634082">
        <time>2019-09-24T09:58:31Z</time>
      </trkpt>
      <trkpt lat="42.6923134308158" lon="-2.47399045005942">
        <time>2019-09-24T09:58:31Z</time>
      </trkpt>
      <trkpt lat="42.6923247350635" lon="-2.47401444015749">
        <time>2019-09-24T09:58:31Z</time>
      </trkpt>
      <trkpt lat="42.6923420036409" lon="-2.47402937198259">
        <time>2019-09-24T09:58:31Z</time>
      </trkpt>
      <trkpt lat="42.6923606583186" lon="-2.47404589009048">
        <time>2019-09-24T09:58:31Z</time>
      </trkpt>
      <trkpt lat="42.6923792123471" lon="-2.47406432593708">
        <time>2019-09-24T09:58:31Z</time>
      </trkpt>
      <trkpt lat="42.6923913128359" lon="-2.47408528225543">
        <time>2019-09-24T09:58:31Z</time>
      </trkpt>
      <trkpt lat="42.6924021740074" lon="-2.47409908290405">
        <time>2019-09-24T09:58:31Z</time>
      </trkpt>
      <trkpt lat="42.6924096599677" lon="-2.47410743083994">
        <time>2019-09-24T09:58:31Z</time>
      </trkpt>
      <trkpt lat="42.6924106255" lon="-2.47411578602597">
        <time>2019-09-24T09:58:31Z</time>
      </trkpt>
      <trkpt lat="42.6924101351949" lon="-2.4741227107152">
        <time>2019-09-24T09:58:31Z</time>
      </trkpt>
      <trkpt lat="42.6924128857664" lon="-2.47412747460042">
        <time>2019-09-24T09:58:31Z</time>
      </trkpt>
      <trkpt lat="42.6924190973552" lon="-2.47413473330045">
        <time>2019-09-24T09:58:31Z</time>
      </trkpt>
      <trkpt lat="42.6924291287409" lon="-2.47414453836425">
        <time>2019-09-24T09:58:31Z</time>
      </trkpt>
      <trkpt lat="42.6924423609176" lon="-2.47415496107985">
        <time>2019-09-24T09:58:31Z</time>
      </trkpt>
      <trkpt lat="42.6924576845478" lon="-2.47416386539825">
        <time>2019-09-24T09:58:31Z</time>
      </trkpt>
      <trkpt lat="42.6924734975937" lon="-2.47416976236327">
        <time>2019-09-24T09:58:31Z</time>
      </trkpt>
      <trkpt lat="42.6924807163986" lon="-2.47417691707659">
        <time>2019-09-24T09:58:31Z</time>
      </trkpt>
      <trkpt lat="42.6924696182686" lon="-2.47418193079067">
        <time>2019-09-24T09:58:31Z</time>
      </trkpt>
      <trkpt lat="42.692460100248" lon="-2.47418804139932">
        <time>2019-09-24T09:58:31Z</time>
      </trkpt>
      <trkpt lat="42.6924526715441" lon="-2.47419408663385">
        <time>2019-09-24T09:58:31Z</time>
      </trkpt>
      <trkpt lat="42.6924471104435" lon="-2.47419890527448">
        <time>2019-09-24T09:58:31Z</time>
      </trkpt>
      <trkpt lat="42.6924372280572" lon="-2.47420210269892">
        <time>2019-09-24T09:58:31Z</time>
      </trkpt>
      <trkpt lat="42.6924524972533" lon="-2.47421093415459">
        <time>2019-09-24T09:58:31Z</time>
      </trkpt>
      <trkpt lat="42.6924638677259" lon="-2.47421811354725">
        <time>2019-09-24T09:58:31Z</time>
      </trkpt>
      <trkpt lat="42.6924769920167" lon="-2.47422476652862">
        <time>2019-09-24T09:58:31Z</time>
      </trkpt>
      <trkpt lat="42.6924913253672" lon="-2.47423006545181">
        <time>2019-09-24T09:58:31Z</time>
      </trkpt>
      <trkpt lat="42.6925066778783" lon="-2.47423347641808">
        <time>2019-09-24T09:58:31Z</time>
      </trkpt>
      <trkpt lat="42.6925232195445" lon="-2.47423503380629">
        <time>2019-09-24T09:58:31Z</time>
      </trkpt>
      <trkpt lat="42.6925401146123" lon="-2.47423519659761">
        <time>2019-09-24T09:58:31Z</time>
      </trkpt>
      <trkpt lat="42.6925564472626" lon="-2.4742345216574">
        <time>2019-09-24T09:58:31Z</time>
      </trkpt>
      <trkpt lat="42.6926004920159" lon="-2.47423435828345">
        <time>2019-09-24T09:58:31Z</time>
      </trkpt>
      <trkpt lat="42.6926155686805" lon="-2.47423659996222">
        <time>2019-09-24T09:58:31Z</time>
      </trkpt>
      <trkpt lat="42.6926289718016" lon="-2.47424123481036">
        <time>2019-09-24T09:58:31Z</time>
      </trkpt>
      <trkpt lat="42.692641081682" lon="-2.47424669916611">
        <time>2019-09-24T09:58:31Z</time>
      </trkpt>
      <trkpt lat="42.692651786352" lon="-2.47425189568557">
        <time>2019-09-24T09:58:31Z</time>
      </trkpt>
      <trkpt lat="42.6926613622487" lon="-2.47425647754294">
        <time>2019-09-24T09:58:31Z</time>
      </trkpt>
      <trkpt lat="42.6926630885658" lon="-2.47425407028542">
        <time>2019-09-24T09:58:31Z</time>
      </trkpt>
      <trkpt lat="42.6926619016356" lon="-2.47424462034745">
        <time>2019-09-24T09:58:31Z</time>
      </trkpt>
      <trkpt lat="42.6926646303936" lon="-2.47424051968408">
        <time>2019-09-24T09:58:31Z</time>
      </trkpt>
      <trkpt lat="42.6926680616295" lon="-2.47424063741417">
        <time>2019-09-24T09:58:31Z</time>
      </trkpt>
      <trkpt lat="42.6926726212121" lon="-2.47424511490755">
        <time>2019-09-24T09:58:31Z</time>
      </trkpt>
      <trkpt lat="42.6926799284595" lon="-2.47425180503289">
        <time>2019-09-24T09:58:31Z</time>
      </trkpt>
      <trkpt lat="42.6926900407699" lon="-2.47425950839926">
        <time>2019-09-24T09:58:31Z</time>
      </trkpt>
      <trkpt lat="42.6927018083462" lon="-2.4742668669588">
        <time>2019-09-24T09:58:31Z</time>
      </trkpt>
      <trkpt lat="42.692713327533" lon="-2.47427300824161">
        <time>2019-09-24T09:58:31Z</time>
      </trkpt>
      <trkpt lat="42.6927227830778" lon="-2.47427685949699">
        <time>2019-09-24T09:58:31Z</time>
      </trkpt>
      <trkpt lat="42.6927291408945" lon="-2.47427678200896">
        <time>2019-09-24T09:58:31Z</time>
      </trkpt>
      <trkpt lat="42.692732322416" lon="-2.47427155535905">
        <time>2019-09-24T09:58:31Z</time>
      </trkpt>
      <trkpt lat="42.6927360376014" lon="-2.47426281957265">
        <time>2019-09-24T09:58:31Z</time>
      </trkpt>
      <trkpt lat="42.6927466128632" lon="-2.47427518165973">
        <time>2019-09-24T09:58:31Z</time>
      </trkpt>
      <trkpt lat="42.6927561869841" lon="-2.47429116597665">
        <time>2019-09-24T09:58:31Z</time>
      </trkpt>
      <trkpt lat="42.6927659713932" lon="-2.47430856402365">
        <time>2019-09-24T09:58:31Z</time>
      </trkpt>
    </trkseg>
  </trk>
</gpx>
